N4ASP-13 Weather Reports


time (UTC)temp
F
wind
direction
speed
knots
gust
knots
rain 1hr
in
rain 24hr
in
rain mn
in
humidity
%
barometer
mb
20260904141533 85 9 0.0 0.9 0.00 0.00 0.00 72 1020.2
20260904141432 85 9 0.0 0.9 0.00 0.00 0.00 72 1020.2
20260904141330 85 9 0.0 1.7 0.00 0.00 0.00 72 1020.2
20260904141227 85 5 0.0 1.7 0.00 0.00 0.00 71 1020.2
20260904141126 85 5 0.0 1.7 0.00 0.00 0.00 72 1020.2
20260904141026 85 5 0.0 1.7 0.00 0.00 0.00 72 1020.2
20260904140925 85 5 0.0 1.7 0.00 0.00 0.00 71 1020.2
20260904140823 85 0 0.0 1.7 0.00 0.00 0.00 70 1020.2
20260904140720 85 350 0.0 1.7 0.00 0.00 0.00 75 1020.2
20260904140617 85 355 0.0 1.7 0.00 0.00 0.00 71 1020.3
20260904140518 85 355 0.0 1.7 0.00 0.00 0.00 73 1020.2
20260904140418 85 355 0.0 1.7 0.00 0.00 0.00 73 1020.3
20260904140318 85 355 0.0 0.0 0.00 0.00 0.00 72 1020.3
20260904140109 85 355 0.0 0.0 0.00 0.00 0.00 72 1020.0
20260904140008 85 355 0.0 0.0 0.00 0.00 0.00 71 1020.0
20260904135909 85 355 0.0 0.0 0.00 0.00 0.00 73 1020.0
20260904135808 85 355 0.0 0.0 0.00 0.00 0.00 72 1020.0
20260904135700 85 348 0.0 0.0 0.00 0.00 0.00 72 1020.0
20260904135601 85 330 0.0 0.0 0.00 0.00 0.00 73 1020.0
20260904135501 84 303 0.0 0.0 0.00 0.00 0.00 72 1020.0
20260904135402 84 303 0.0 0.0 0.00 0.00 0.00 73 1020.0
20260904135305 84 303 0.0 0.9 0.00 0.00 0.00 71 1020.0
20260904135158 84 303 0.0 1.7 0.00 0.00 0.00 72 1020.0
20260904135058 84 303 0.0 1.7 0.00 0.00 0.00 72 1020.0
20260904134958 84 303 0.0 1.7 0.00 0.00 0.00 72 1019.9
20260904134857 84 303 0.0 1.7 0.00 0.00 0.00 73 1019.9
20260904134755 84 303 0.9 1.7 0.00 0.00 0.00 73 1019.8
20260904134648 83 303 0.9 2.6 0.00 0.00 0.00 74 1019.8
20260904134546 83 303 0.9 2.6 0.00 0.00 0.00 72 1019.8
20260904134447 83 303 0.9 2.6 0.00 0.00 0.00 73 1019.8
20260904134348 83 295 0.9 2.6 0.00 0.00 0.00 73 1019.8
20260904134244 83 296 1.7 2.6 0.00 0.00 0.00 73 1019.8
20260904134140 83 296 1.7 2.6 0.00 0.00 0.00 74 1019.7
20260904134037 83 296 1.7 2.6 0.00 0.00 0.00 75 1019.7
20260904133938 83 296 1.7 2.6 0.00 0.00 0.00 75 1019.8
20260904133836 83 296 1.7 2.6 0.00 0.00 0.00 73 1019.8
20260904133738 83 297 1.7 2.6 0.00 0.00 0.00 73 1019.8
20260904133635 83 297 1.7 2.6 0.00 0.00 0.00 73 1019.8
20260904133531 83 297 1.7 2.6 0.00 0.00 0.00 73 1019.8
20260904133432 83 298 1.7 2.6 0.00 0.00 0.00 73 1019.8
20260904133331 83 309 1.7 2.6 0.00 0.00 0.00 75 1019.7
20260904133232 83 311 1.7 2.6 0.00 0.00 0.00 75 1019.8
20260904133122 83 292 1.7 2.6 0.00 0.00 0.00 75 1019.7
20260904133022 83 292 1.7 2.6 0.00 0.00 0.00 74 1019.7
20260904132921 83 292 1.7 2.6 0.00 0.00 0.00 74 1019.6
20260904132821 83 274 1.7 2.6 0.00 0.00 0.00 75 1019.7
20260904132721 83 299 1.7 2.6 0.00 0.00 0.00 75 1019.7
20260904132617 83 299 1.7 2.6 0.00 0.00 0.00 74 1019.9
20260904132516 83 300 1.7 3.5 0.00 0.00 0.00 75 1019.7
20260904132416 83 303 1.7 4.3 0.00 0.00 0.00 75 1019.7
20260904132316 83 303 1.7 4.3 0.00 0.00 0.00 75 1019.8
20260904132216 82 302 1.7 4.3 0.00 0.00 0.00 76 1019.7
20260904132114 82 302 1.7 4.3 0.00 0.00 0.00 76 1019.8
20260904132014 82 302 1.7 4.3 0.00 0.00 0.00 76 1019.8
20260904131911 82 302 1.7 4.3 0.00 0.00 0.00 74 1019.8
20260904131812 82 300 1.7 4.3 0.00 0.00 0.00 75 1019.7
20260904131709 82 300 1.7 4.3 0.00 0.00 0.00 74 1019.7
20260904131601 82 298 0.9 4.3 0.00 0.00 0.00 73 1019.8
20260904131501 82 294 0.9 4.3 0.00 0.00 0.00 75 1019.8
20260904131359 82 294 0.9 2.6 0.00 0.00 0.00 76 1019.7
20260904131300 82 294 0.9 2.6 0.00 0.00 0.00 76 1019.8
20260904131200 82 294 0.9 3.5 0.00 0.00 0.00 76 1019.8
20260904131053 82 294 0.9 5.2 0.00 0.00 0.00 77 1019.7
20260904130956 82 294 0.9 5.2 0.00 0.00 0.00 77 1019.8
20260904130854 82 294 0.9 5.2 0.00 0.00 0.00 77 1019.8
20260904130754 82 294 0.9 5.2 0.00 0.00 0.00 77 1019.8
20260904130654 82 294 0.9 5.2 0.00 0.00 0.00 78 1019.8
20260904130548 82 294 0.9 5.2 0.00 0.00 0.00 77 1019.8
20260904130447 82 294 0.9 5.2 0.00 0.00 0.00 77 1019.7
20260904130348 82 294 0.9 5.2 0.00 0.00 0.00 77 1019.8
20260904130249 82 295 0.9 5.2 0.00 0.00 0.00 77 1019.8
20260904130148 81 261 0.9 2.6 0.00 0.00 0.00 78 1019.8
20260904130042 81 284 0.9 2.6 0.00 0.00 0.00 77 1019.8
20260904125942 81 284 0.9 2.6 0.00 0.00 0.00 78 1019.7
20260904125840 81 267 0.9 2.6 0.00 0.00 0.00 78 1019.7
20260904125740 81 289 0.9 2.6 0.00 0.00 0.00 79 1019.7
20260904125638 81 289 1.7 2.6 0.00 0.00 0.00 78 1019.8
20260904125534 81 289 1.7 2.6 0.00 0.00 0.00 78 1019.7
20260904125432 81 289 1.7 2.6 0.00 0.00 0.00 78 1019.8
20260904125330 81 285 1.7 2.6 0.00 0.00 0.00 78 1019.8
20260904125231 81 284 1.7 2.6 0.00 0.00 0.00 77 1019.8
20260904125132 81 274 1.7 2.6 0.00 0.00 0.00 78 1019.7
20260904125029 81 226 1.7 2.6 0.00 0.00 0.00 78 1019.7
20260904124927 81 225 1.7 2.6 0.00 0.00 0.00 78 1019.7
20260904124828 81 239 1.7 2.6 0.00 0.00 0.00 78 1019.8
20260904124728 81 290 1.7 2.6 0.00 0.00 0.00 79 1019.7
20260904124625 81 290 1.7 2.6 0.00 0.00 0.00 79 1019.6
20260904124519 81 290 0.9 2.6 0.00 0.00 0.00 79 1019.7
20260904124415 81 290 0.9 2.6 0.00 0.00 0.00 79 1019.7
20260904124316 81 290 0.9 2.6 0.00 0.00 0.00 79 1019.7
20260904124215 81 310 0.9 2.6 0.00 0.00 0.00 79 1019.7
20260904124116 81 310 0.9 2.6 0.00 0.00 0.00 79 1019.6
20260904124012 81 309 0.9 2.6 0.00 0.00 0.00 79 1019.7
20260904123910 81 310 0.9 2.6 0.00 0.00 0.00 79 1019.7
20260904123809 81 311 0.9 2.6 0.00 0.00 0.00 79 1019.6
20260904123710 80 311 0.9 2.6 0.00 0.00 0.00 80 1019.6
20260904123610 80 311 0.9 2.6 0.00 0.00 0.00 80 1019.6
20260904123506 80 117 0.9 2.6 0.00 0.00 0.00 80 1019.6
20260904123403 80 117 0.9 2.6 0.00 0.00 0.00 80 1019.6
20260904123304 80 157 0.9 2.6 0.00 0.00 0.00 79 1019.6
20260904123203 80 157 0.9 2.6 0.00 0.00 0.00 79 1019.7
20260904123103 80 155 0.9 2.6 0.00 0.00 0.00 80 1019.7
20260904122958 80 155 0.9 2.6 0.00 0.00 0.00 80 1019.7
20260904122858 80 155 0.9 2.6 0.00 0.00 0.00 80 1019.7
20260904122757 80 155 0.9 2.6 0.00 0.00 0.00 80 1019.7
20260904122655 80 155 0.9 2.6 0.00 0.00 0.00 80 1019.7
20260904122554 80 157 0.9 2.6 0.00 0.00 0.00 80 1019.7
20260904122449 80 153 1.7 2.6 0.00 0.00 0.00 82 1019.7
20260904122347 80 153 1.7 2.6 0.00 0.00 0.00 82 1019.7
20260904122248 80 161 1.7 2.6 0.00 0.00 0.00 82 1019.8
20260904122148 80 117 1.7 2.6 0.00 0.00 0.00 82 1019.7
20260904122047 80 157 1.7 1.7 0.00 0.00 0.00 81 1019.7
20260904121944 80 153 0.9 1.7 0.00 0.00 0.00 82 1019.6
20260904121845 80 153 0.9 1.7 0.00 0.00 0.00 81 1019.6
20260904121743 80 153 0.9 3.5 0.00 0.00 0.00 81 1019.6
20260904121644 80 152 0.9 3.5 0.00 0.00 0.00 81 1019.6
20260904121541 80 153 0.9 3.5 0.00 0.00 0.00 81 1019.6
20260904121437 79 155 0.9 3.5 0.00 0.00 0.00 81 1019.6
20260904121335 79 113 0.9 3.5 0.00 0.00 0.00 81 1019.6
20260904121234 79 109 0.9 3.5 0.00 0.00 0.00 81 1019.6
20260904121133 79 110 0.9 3.5 0.00 0.00 0.00 81 1019.6
20260904121031 79 111 0.9 3.5 0.00 0.00 0.00 82 1019.5
20260904120932 79 111 0.9 3.5 0.00 0.00 0.00 81 1019.5
20260904120830 79 111 0.9 3.5 0.00 0.00 0.00 81 1019.6
20260904120728 79 109 0.9 2.6 0.00 0.00 0.00 82 1019.6
20260904120628 79 101 0.0 2.6 0.00 0.00 0.00 82 1019.6
20260904120526 79 224 0.0 2.6 0.00 0.00 0.00 81 1019.5
20260904120422 78 223 0.0 2.6 0.00 0.00 0.00 82 1019.6
20260904120324 78 214 0.0 2.6 0.00 0.00 0.00 82 1019.5
20260904120221 78 212 0.0 3.5 0.00 0.00 0.00 82 1019.5
20260904120121 78 207 0.0 3.5 0.00 0.00 0.00 82 1019.4
20260904120020 78 209 0.0 3.5 0.00 0.00 0.00 83 1019.5
20260904115913 78 208 0.9 3.5 0.00 0.00 0.00 83 1019.4
20260904115812 78 207 0.9 3.5 0.00 0.00 0.00 83 1019.4
20260904115712 78 207 0.9 3.5 0.00 0.00 0.00 83 1019.3
20260904115612 78 234 0.9 3.5 0.00 0.00 0.00 83 1019.4
20260904115509 78 232 1.7 3.5 0.00 0.00 0.00 83 1019.3
20260904115407 78 232 1.7 3.5 0.00 0.00 0.00 83 1019.3
20260904115307 78 180 1.7 3.5 0.00 0.00 0.00 83 1019.4
20260904115207 78 194 1.7 3.5 0.00 0.00 0.00 83 1019.4
20260904115106 78 194 1.7 3.5 0.00 0.00 0.00 84 1019.4
20260904115004 78 194 1.7 3.5 0.00 0.00 0.00 84 1019.3
20260904114901 77 194 1.7 3.5 0.00 0.00 0.00 84 1019.3
20260904114801 77 194 1.7 3.5 0.00 0.00 0.00 84 1019.3
20260904114659 77 194 1.7 3.5 0.00 0.00 0.00 84 1019.4
20260904114600 77 194 1.7 3.5 0.00 0.00 0.00 84 1019.4
20260904114458 77 196 1.7 3.5 0.00 0.00 0.00 84 1019.3
20260904114348 77 199 1.7 3.5 0.00 0.00 0.00 85 1019.3
20260904114248 77 221 0.9 3.5 0.00 0.00 0.00 84 1019.4
20260904114148 77 223 0.9 3.5 0.00 0.00 0.00 84 1019.3
20260904114048 77 246 0.9 3.5 0.00 0.00 0.00 85 1019.3
20260904113948 77 277 0.9 3.5 0.00 0.00 0.00 85 1019.3
20260904113844 77 74 0.9 2.6 0.00 0.00 0.00 85 1019.3
20260904113743 77 77 0.9 2.6 0.00 0.00 0.00 85 1019.3
20260904113641 77 77 0.9 3.5 0.00 0.00 0.00 85 1019.3
20260904113541 77 77 0.9 4.3 0.00 0.00 0.00 85 1019.3
20260904113441 77 172 0.9 4.3 0.00 0.00 0.00 85 1019.3
20260904113338 77 178 0.9 4.3 0.00 0.00 0.00 85 1019.2
20260904113235 77 184 1.7 4.3 0.00 0.00 0.00 85 1019.3
20260904113135 76 180 1.7 4.3 0.00 0.00 0.00 85 1019.2
20260904113035 76 180 1.7 4.3 0.00 0.00 0.00 85 1019.2
20260904112935 76 169 1.7 4.3 0.00 0.00 0.00 85 1019.2
20260904112826 76 175 1.7 4.3 0.00 0.00 0.00 85 1019.2
20260904112725 76 180 1.7 4.3 0.00 0.00 0.00 85 1019.2
20260904112626 76 178 1.7 4.3 0.00 0.00 0.00 85 1019.2
20260904112525 76 169 1.7 3.5 0.00 0.00 0.00 85 1019.2
20260904112426 76 165 0.9 3.5 0.00 0.00 0.00 85 1019.1
20260904112320 76 169 0.9 3.5 0.00 0.00 0.00 85 1019.2
20260904112219 76 181 0.9 3.5 0.00 0.00 0.00 85 1019.2
20260904112118 76 175 0.9 3.5 0.00 0.00 0.00 85 1019.2
20260904112020 76 180 0.9 3.5 0.00 0.00 0.00 85 1019.2
20260904111919 76 180 0.9 3.5 0.00 0.00 0.00 85 1019.1
20260904111816 76 184 0.0 3.5 0.00 0.00 0.00 85 1019.1
20260904111715 76 184 0.0 3.5 0.00 0.00 0.00 85 1019.1
20260904111614 76 184 0.0 1.7 0.00 0.00 0.00 85 1019.1
20260904111514 76 184 0.0 1.7 0.00 0.00 0.00 85 1019.1
20260904111414 76 184 0.0 1.7 0.00 0.00 0.00 85 1019.0
20260904111304 76 184 0.0 1.7 0.00 0.00 0.00 85 1019.0
20260904111203 76 184 0.0 1.7 0.00 0.00 0.00 85 1019.1
20260904111104 76 184 0.0 0.9 0.00 0.00 0.00 85 1019.0
20260904111002 76 184 0.0 0.9 0.00 0.00 0.00 85 1019.1
20260904110904 76 184 0.0 0.9 0.00 0.00 0.00 85 1019.1
20260904110758 76 184 0.0 0.9 0.00 0.00 0.00 85 1019.0
20260904110657 76 185 0.0 0.0 0.00 0.00 0.00 85 1019.1
20260904110556 76 176 0.0 0.0 0.00 0.00 0.00 85 1019.1
20260904110457 76 171 0.0 0.0 0.00 0.00 0.00 85 1019.0
20260904110357 76 170 0.0 0.0 0.00 0.00 0.00 85 1019.0
20260904110256 76 169 0.0 0.0 0.00 0.00 0.00 85 1019.0
20260904110156 76 168 0.0 0.0 0.00 0.00 0.00 85 1019.0
20260904110055 76 168 0.0 0.0 0.00 0.00 0.00 85 1019.0
20260904105954 76 168 0.0 0.0 0.00 0.00 0.00 85 1019.0
20260904105852 76 168 0.0 0.0 0.00 0.00 0.00 85 1019.0
20260904105746 76 169 0.0 0.0 0.00 0.00 0.00 85 1019.1
20260904105645 76 169 0.0 0.0 0.00 0.00 0.00 85 1019.0
20260904105545 76 169 0.0 0.0 0.00 0.00 0.00 85 1018.9
20260904105444 76 169 0.0 0.0 0.00 0.00 0.00 85 1019.0
20260904105341 76 170 0.0 0.0 0.00 0.00 0.00 85 1018.9
20260904105237 76 171 0.0 0.0 0.00 0.00 0.00 85 1019.0
20260904105135 76 171 0.0 0.0 0.00 0.00 0.00 85 1018.9
20260904105034 76 171 0.0 0.0 0.00 0.00 0.00 85 1019.0
20260904104937 76 171 0.0 0.0 0.00 0.00 0.00 85 1018.9
20260904104836 76 189 0.0 0.0 0.00 0.00 0.00 85 1019.0
20260904104732 76 173 0.0 0.0 0.00 0.00 0.00 85 1018.9
20260904104628 76 174 0.0 0.0 0.00 0.00 0.00 85 1018.9
20260904104530 76 174 0.0 0.0 0.00 0.00 0.00 85 1018.9
20260904104429 76 179 0.0 0.0 0.00 0.00 0.00 85 1018.8
20260904104330 76 182 0.0 0.0 0.00 0.00 0.00 85 1018.8
20260904104224 76 183 0.0 0.0 0.00 0.00 0.00 85 1018.8
20260904104124 76 184 0.0 0.0 0.00 0.00 0.00 85 1018.9
20260904104024 76 184 0.0 0.0 0.00 0.00 0.00 85 1018.9
20260904103922 76 180 0.0 0.0 0.00 0.00 0.00 85 1018.9
20260904103820 76 176 0.0 0.0 0.00 0.00 0.00 85 1018.8
20260904103714 76 205 0.0 0.0 0.00 0.00 0.00 85 1018.8
20260904103616 76 211 0.0 0.0 0.00 0.00 0.00 85 1018.9
20260904103515 76 215 0.0 0.0 0.00 0.00 0.00 85 1018.9
20260904103415 76 166 0.0 0.0 0.00 0.00 0.00 85 1018.9
20260904103314 76 166 0.0 0.0 0.00 0.00 0.00 85 1018.9
20260904103214 76 166 0.0 0.0 0.00 0.00 0.00 85 1018.8
20260904103112 76 166 0.0 0.0 0.00 0.00 0.00 85 1018.9
20260904103011 76 167 0.0 0.0 0.00 0.00 0.00 86 1018.8
20260904102910 76 147 0.0 0.0 0.00 0.00 0.00 86 1018.8
20260904102808 76 146 0.0 0.0 0.00 0.00 0.00 86 1018.8
20260904102701 76 146 0.0 0.0 0.00 0.00 0.00 85 1018.9
20260904102602 76 150 0.0 0.0 0.00 0.00 0.00 85 1018.9
20260904102501 76 150 0.0 0.0 0.00 0.00 0.00 85 1018.8
20260904102400 76 150 0.0 0.0 0.00 0.00 0.00 85 1018.7
20260904102258 76 149 0.0 0.0 0.00 0.00 0.00 85 1018.8
20260904102158 76 151 0.0 0.0 0.00 0.00 0.00 85 1018.8
20260904102054 76 150 0.0 0.0 0.00 0.00 0.00 85 1018.8
20260904101956 76 142 0.0 0.0 0.00 0.00 0.00 85 1018.8
20260904101853 76 142 0.0 0.0 0.00 0.00 0.00 85 1018.9
20260904101752 76 141 0.0 0.0 0.00 0.00 0.00 85 1018.9
20260904101650 76 140 0.0 0.0 0.00 0.00 0.00 85 1018.8
20260904101550 76 140 0.0 0.0 0.00 0.00 0.00 85 1018.8
20260904101449 76 126 0.0 0.0 0.00 0.00 0.00 85 1018.8
20260904101347 76 126 0.0 0.0 0.00 0.00 0.00 85 1018.8
20260904101248 76 126 0.0 0.0 0.00 0.00 0.00 85 1018.8
20260904101147 76 126 0.0 0.0 0.00 0.00 0.00 85 1018.9
20260904101048 76 126 0.0 0.0 0.00 0.00 0.00 85 1018.8
20260904100945 76 127 0.0 0.0 0.00 0.00 0.00 85 1018.8
20260904100846 76 127 0.0 0.0 0.00 0.00 0.00 85 1018.8
20260904100745 76 127 0.0 0.0 0.00 0.00 0.00 85 1018.8
20260904100643 76 127 0.0 0.0 0.00 0.00 0.00 85 1018.8
20260904100542 76 127 0.0 0.0 0.00 0.00 0.00 85 1018.7
20260904100442 76 127 0.0 0.0 0.00 0.00 0.00 85 1018.8
20260904100340 76 127 0.0 0.0 0.00 0.00 0.00 85 1018.8
20260904100240 76 127 0.0 0.0 0.00 0.00 0.00 85 1018.7
20260904100137 76 127 0.0 0.0 0.00 0.00 0.00 85 1018.7
20260904100035 76 127 0.0 0.0 0.00 0.00 0.00 85 1018.7
20260904095936 76 127 0.0 0.0 0.00 0.00 0.00 85 1018.7
20260904095833 76 127 0.0 0.0 0.00 0.00 0.00 85 1018.8
20260904095733 76 130 0.0 0.0 0.00 0.00 0.00 85 1018.7
20260904095632 76 185 0.0 0.0 0.00 0.00 0.00 85 1018.8
20260904095528 76 146 0.0 0.0 0.00 0.00 0.00 85 1018.8
20260904095430 76 146 0.0 0.0 0.00 0.00 0.00 85 1018.8
20260904095326 76 146 0.0 0.0 0.00 0.00 0.00 85 1018.8
20260904095227 76 146 0.0 0.0 0.00 0.00 0.00 85 1018.8
20260904095124 76 146 0.0 0.0 0.00 0.00 0.00 85 1018.8
20260904095023 76 146 0.0 0.0 0.00 0.00 0.00 85 1018.8
20260904094923 76 146 0.0 0.0 0.00 0.00 0.00 85 1018.9
20260904094822 76 146 0.0 0.0 0.00 0.00 0.00 85 1018.8
20260904094722 76 147 0.0 0.0 0.00 0.00 0.00 85 1018.8
20260904094620 76 147 0.0 0.0 0.00 0.00 0.00 85 1018.8
20260904094516 76 147 0.0 0.0 0.00 0.00 0.00 85 1018.8
20260904094416 76 90 0.0 0.0 0.00 0.00 0.00 85 1018.8
20260904094316 76 90 0.0 0.0 0.00 0.00 0.00 85 1018.9
20260904094216 76 90 0.0 0.0 0.00 0.00 0.00 85 1018.8
20260904094115 76 201 0.0 0.0 0.00 0.00 0.00 85 1018.7
20260904094016 76 201 0.0 0.0 0.00 0.00 0.00 85 1018.7
20260904093910 76 201 0.0 0.0 0.00 0.00 0.00 85 1018.7
20260904093810 76 201 0.0 0.0 0.00 0.00 0.00 85 1018.7
20260904093709 76 201 0.0 0.0 0.00 0.00 0.00 84 1018.6
20260904093610 76 201 0.0 0.0 0.00 0.00 0.00 84 1018.6
20260904093510 76 201 0.0 0.0 0.00 0.00 0.00 84 1018.7
20260904093404 76 201 0.0 0.0 0.00 0.00 0.00 84 1018.6
20260904093302 76 201 0.0 0.0 0.00 0.00 0.00 84 1018.6
20260904093202 76 201 0.0 0.0 0.00 0.00 0.00 84 1018.6
20260904093104 76 201 0.0 0.0 0.00 0.00 0.00 84 1018.4
20260904093005 76 202 0.0 0.0 0.00 0.00 0.00 84 1018.6
20260904092859 76 202 0.0 0.0 0.00 0.00 0.00 84 1018.6
20260904092758 76 201 0.0 0.0 0.00 0.00 0.00 84 1018.4
20260904092656 76 201 0.0 0.0 0.00 0.00 0.00 84 1018.6
20260904092556 76 202 0.0 0.0 0.00 0.00 0.00 84 1018.6
20260904092453 76 202 0.0 0.0 0.00 0.00 0.00 84 1018.6
20260904092346 76 202 0.0 0.0 0.00 0.00 0.00 84 1018.6
20260904092248 76 202 0.0 0.0 0.00 0.00 0.00 84 1018.6
20260904092147 76 202 0.0 0.0 0.00 0.00 0.00 84 1018.6
20260904092046 76 202 0.0 0.0 0.00 0.00 0.00 84 1018.6
20260904091948 76 202 0.0 0.0 0.00 0.00 0.00 84 1018.4
20260904091848 76 202 0.0 0.0 0.00 0.00 0.00 84 1018.4
20260904091744 76 202 0.0 0.0 0.00 0.00 0.00 84 1018.3
20260904091646 76 202 0.0 0.0 0.00 0.00 0.00 84 1018.4
20260904091542 76 202 0.0 0.0 0.00 0.00 0.00 84 1018.4
20260904091442 77 202 0.0 0.0 0.00 0.00 0.00 84 1018.3
20260904091336 76 202 0.0 0.0 0.00 0.00 0.00 84 1018.3
20260904091235 76 202 0.0 0.0 0.00 0.00 0.00 84 1018.3
20260904091135 77 202 0.0 0.0 0.00 0.00 0.00 84 1018.3
20260904091033 77 202 0.0 0.0 0.00 0.00 0.00 84 1018.3
20260904090932 77 202 0.0 0.0 0.00 0.00 0.00 84 1018.3
20260904090832 77 202 0.0 0.0 0.00 0.00 0.00 84 1018.3
20260904090728 77 202 0.0 0.0 0.00 0.00 0.00 84 1018.3
20260904090630 77 202 0.0 0.0 0.00 0.00 0.00 84 1018.2
20260904090528 77 202 0.0 0.0 0.00 0.00 0.00 84 1018.3
20260904090425 77 202 0.0 0.0 0.00 0.00 0.00 83 1018.2
20260904090325 77 203 0.0 0.0 0.00 0.00 0.00 83 1018.3
20260904090223 77 203 0.0 0.0 0.00 0.00 0.00 83 1018.3
20260904090122 77 203 0.0 0.0 0.00 0.00 0.00 83 1018.2
20260904090022 77 203 0.0 0.0 0.00 0.00 0.00 83 1018.2
20260904085920 77 221 0.0 0.0 0.00 0.00 0.00 83 1018.2
20260904085814 77 221 0.0 0.0 0.00 0.00 0.00 83 1018.3
20260904085713 77 221 0.0 0.0 0.00 0.00 0.00 83 1018.3
20260904085612 77 221 0.0 0.0 0.00 0.00 0.00 83 1018.2
20260904085511 77 221 0.0 0.0 0.00 0.00 0.00 83 1018.2
20260904085410 77 221 0.0 0.0 0.00 0.00 0.00 83 1018.2
20260904085306 77 221 0.0 0.0 0.00 0.00 0.00 83 1018.1
20260904085205 77 221 0.0 0.0 0.00 0.00 0.00 83 1018.1
20260904085106 77 221 0.0 0.0 0.00 0.00 0.00 83 1018.1
20260904085005 77 221 0.0 0.0 0.00 0.00 0.00 83 1018.1
20260904084905 77 221 0.0 0.0 0.00 0.00 0.00 83 1018.1
20260904084805 77 221 0.0 0.0 0.00 0.00 0.00 83 1018.1
20260904084705 77 221 0.0 0.0 0.00 0.00 0.00 83 1018.1
20260904084604 77 221 0.0 0.0 0.00 0.00 0.00 83 1018.2
20260904084505 77 221 0.0 0.0 0.00 0.00 0.00 82 1018.2
20260904084405 77 221 0.0 0.0 0.00 0.00 0.00 82 1018.1
20260904084304 77 221 0.0 0.0 0.00 0.00 0.00 82 1018.1
20260904084204 77 221 0.0 0.0 0.00 0.00 0.00 82 1018.1
20260904084106 77 221 0.0 0.0 0.00 0.00 0.00 82 1018.1
20260904084006 77 222 0.0 0.0 0.00 0.00 0.00 82 1018.2
20260904083904 77 222 0.0 0.0 0.00 0.00 0.00 82 1018.2
20260904083806 77 222 0.0 0.0 0.00 0.00 0.00 82 1018.2
20260904083706 77 223 0.0 0.0 0.00 0.00 0.00 82 1018.1
20260904083601 77 220 0.0 0.0 0.00 0.00 0.00 82 1018.1
20260904083501 77 220 0.0 0.0 0.00 0.00 0.00 82 1018.1
20260904083402 77 220 0.0 0.0 0.00 0.00 0.00 82 1018.0
20260904083301 77 220 0.0 0.0 0.00 0.00 0.00 82 1018.0
20260904083159 77 220 0.0 0.0 0.00 0.00 0.00 82 1018.1
20260904083059 77 220 0.0 0.0 0.00 0.00 0.00 82 1018.0
20260904082957 77 220 0.0 0.0 0.00 0.00 0.00 81 1018.0
20260904082858 77 220 0.0 0.0 0.00 0.00 0.00 81 1018.1
20260904082754 77 220 0.0 0.0 0.00 0.00 0.00 81 1018.0
20260904082654 77 220 0.0 0.0 0.00 0.00 0.00 81 1018.0
20260904082550 77 220 0.0 0.0 0.00 0.00 0.00 81 1018.1
20260904082447 77 220 0.0 0.0 0.00 0.00 0.00 81 1018.0
20260904082346 77 220 0.0 0.0 0.00 0.00 0.00 81 1018.0
20260904082246 78 220 0.0 0.0 0.00 0.00 0.00 81 1018.1
20260904082143 77 220 0.0 0.0 0.00 0.00 0.00 81 1018.0
20260904082040 78 220 0.0 0.0 0.00 0.00 0.00 81 1018.0
20260904081938 77 220 0.0 0.0 0.00 0.00 0.00 81 1018.1
20260904081837 78 220 0.0 0.0 0.00 0.00 0.00 81 1018.0
20260904081736 78 220 0.0 0.0 0.00 0.00 0.00 81 1018.1
20260904081638 78 220 0.0 0.0 0.00 0.00 0.00 81 1018.0
20260904081538 78 220 0.0 0.0 0.00 0.00 0.00 81 1018.0
20260904081435 78 220 0.0 0.0 0.00 0.00 0.00 80 1018.1
20260904081335 78 220 0.0 0.0 0.00 0.00 0.00 80 1018.1
20260904081232 78 220 0.0 0.0 0.00 0.00 0.00 80 1018.1
20260904081132 78 220 0.0 0.0 0.00 0.00 0.00 80 1018.1
20260904081033 78 220 0.0 0.0 0.00 0.00 0.00 80 1018.2
20260904080931 78 220 0.0 0.0 0.00 0.00 0.00 80 1018.1
20260904080831 78 220 0.0 0.0 0.00 0.00 0.00 80 1018.2
20260904080730 78 220 0.0 0.0 0.00 0.00 0.00 80 1018.2
20260904080626 78 220 0.0 0.0 0.00 0.00 0.00 80 1018.2
20260904080528 78 220 0.0 0.0 0.00 0.00 0.00 80 1018.2
20260904080426 78 220 0.0 0.0 0.00 0.00 0.00 80 1018.2
20260904080326 78 220 0.0 0.0 0.00 0.00 0.00 80 1018.3
20260904080224 78 220 0.0 0.0 0.00 0.00 0.00 80 1018.2
20260904080125 78 220 0.0 0.0 0.00 0.00 0.00 80 1018.2
20260904080022 78 220 0.0 0.0 0.00 0.00 0.00 80 1018.3
20260904075924 78 220 0.0 0.0 0.00 0.00 0.00 80 1018.2
20260904075820 78 220 0.0 0.0 0.00 0.00 0.00 80 1018.2
20260904075716 78 220 0.0 0.0 0.00 0.00 0.00 80 1018.3
20260904075618 78 220 0.0 0.0 0.00 0.00 0.00 80 1018.2
20260904075518 78 220 0.0 0.0 0.00 0.00 0.00 80 1018.2
20260904075417 78 220 0.0 0.0 0.00 0.00 0.00 80 1018.2
20260904075316 78 220 0.0 0.0 0.00 0.00 0.00 80 1018.2
20260904075218 78 220 0.0 0.0 0.00 0.00 0.00 80 1018.3
20260904075117 78 220 0.0 0.0 0.00 0.00 0.00 80 1018.3
20260904075017 78 220 0.0 0.0 0.00 0.00 0.00 80 1018.3
20260904074916 78 220 0.0 0.0 0.00 0.00 0.00 80 1018.2
20260904074817 78 220 0.0 0.0 0.00 0.00 0.00 80 1018.2
20260904074717 78 220 0.0 0.0 0.00 0.00 0.00 80 1018.2
20260904074617 78 220 0.0 0.0 0.00 0.00 0.00 80 1018.2
20260904074517 78 220 0.0 0.0 0.00 0.00 0.00 80 1018.2
20260904074418 78 220 0.0 0.0 0.00 0.00 0.00 80 1018.2
20260904074316 78 220 0.0 0.0 0.00 0.00 0.00 80 1018.2
20260904074217 78 220 0.0 0.0 0.00 0.00 0.00 80 1018.2
20260904074116 78 220 0.0 0.0 0.00 0.00 0.00 80 1018.2
20260904074017 78 220 0.0 0.0 0.00 0.00 0.00 80 1018.2
20260904073917 78 220 0.0 0.0 0.00 0.00 0.00 79 1018.2
20260904073816 78 222 0.0 0.0 0.00 0.00 0.00 79 1018.2
20260904073717 78 222 0.0 0.0 0.00 0.00 0.00 79 1018.2
20260904073617 78 222 0.0 0.0 0.00 0.00 0.00 79 1018.2
20260904073518 78 222 0.0 0.0 0.00 0.00 0.00 79 1018.2
20260904073417 78 222 0.0 0.0 0.00 0.00 0.00 79 1018.2
20260904073318 78 222 0.0 0.0 0.00 0.00 0.00 79 1018.3
20260904073214 78 222 0.0 0.0 0.00 0.00 0.00 79 1018.3
20260904073112 78 222 0.0 0.0 0.00 0.00 0.00 79 1018.3
20260904073012 78 222 0.0 0.0 0.00 0.00 0.00 79 1018.3
20260904072912 78 222 0.0 0.0 0.00 0.00 0.00 79 1018.4
20260904072814 78 222 0.0 0.0 0.00 0.00 0.00 79 1018.3
20260904072712 78 222 0.0 0.0 0.00 0.00 0.00 79 1018.4
20260904072613 78 222 0.0 0.0 0.00 0.00 0.00 79 1018.3
20260904072515 78 222 0.0 0.0 0.00 0.00 0.00 79 1018.4
20260904072414 78 222 0.0 0.0 0.00 0.00 0.00 79 1018.4
20260904072312 78 222 0.0 0.0 0.00 0.00 0.00 79 1018.4
20260904072212 78 222 0.0 0.0 0.00 0.00 0.00 79 1018.4
20260904072114 78 222 0.0 0.0 0.00 0.00 0.00 79 1018.4
20260904072012 78 222 0.0 0.0 0.00 0.00 0.00 79 1018.4
20260904071913 78 222 0.0 0.0 0.00 0.00 0.00 79 1018.4
20260904071813 78 222 0.0 0.0 0.00 0.00 0.00 79 1018.4
20260904071714 78 222 0.0 0.0 0.00 0.00 0.00 79 1018.4
20260904071612 78 222 0.0 0.0 0.00 0.00 0.00 79 1018.4
20260904071514 78 222 0.0 0.0 0.00 0.00 0.00 79 1018.4
20260904071412 78 222 0.0 0.0 0.00 0.00 0.00 78 1018.4
20260904071314 78 222 0.0 0.0 0.00 0.00 0.00 78 1018.6
20260904071213 78 222 0.0 0.0 0.00 0.00 0.00 78 1018.4
20260904071113 78 222 0.0 0.0 0.00 0.00 0.00 78 1018.4
20260904071013 78 222 0.0 0.0 0.00 0.00 0.00 78 1018.4
20260904070913 78 222 0.0 0.0 0.00 0.00 0.00 78 1018.6
20260904070812 78 222 0.0 0.0 0.00 0.00 0.00 78 1018.7
20260904070713 78 222 0.0 0.0 0.00 0.00 0.00 78 1018.7
20260904070613 78 222 0.0 0.0 0.00 0.00 0.00 78 1018.6
20260904070513 78 222 0.0 0.0 0.00 0.00 0.00 78 1018.6
20260904070413 78 222 0.0 0.0 0.00 0.00 0.00 78 1018.7
20260904070312 78 222 0.0 0.0 0.00 0.00 0.00 78 1018.7
20260904070212 78 222 0.0 0.0 0.00 0.00 0.00 78 1018.7
20260904070114 78 222 0.0 0.0 0.00 0.00 0.00 78 1018.7
20260904070013 78 222 0.0 0.0 0.00 0.00 0.00 78 1018.7
20260904065914 78 222 0.0 0.0 0.00 0.00 0.00 78 1018.7
20260904065812 78 222 0.0 0.0 0.00 0.00 0.00 78 1018.7
20260904065714 78 222 0.0 0.0 0.00 0.00 0.00 78 1018.7
20260904065613 78 222 0.0 0.0 0.00 0.00 0.00 78 1018.8
20260904065512 78 222 0.0 0.0 0.00 0.00 0.00 79 1018.8
20260904065413 78 222 0.0 0.0 0.00 0.00 0.00 79 1018.8
20260904065314 78 222 0.0 0.0 0.00 0.00 0.00 79 1018.8
20260904065205 78 222 0.0 0.0 0.00 0.00 0.00 79 1018.9
20260904065105 78 222 0.0 0.0 0.00 0.00 0.00 79 1018.9
20260904065005 78 222 0.0 0.0 0.00 0.00 0.00 79 1018.9
20260904064904 78 222 0.0 0.0 0.00 0.00 0.00 79 1018.9
20260904064804 78 222 0.0 0.0 0.00 0.00 0.00 79 1019.0
20260904064706 78 222 0.0 0.0 0.00 0.00 0.00 79 1018.9
20260904064606 78 222 0.0 0.0 0.00 0.00 0.00 79 1019.0
20260904064506 78 222 0.0 0.0 0.00 0.00 0.00 79 1019.0
20260904064404 78 222 0.0 0.0 0.00 0.00 0.00 79 1019.0
20260904064306 78 222 0.0 0.0 0.00 0.00 0.00 79 1019.1
20260904064204 78 222 0.0 0.0 0.00 0.00 0.00 79 1019.1
20260904064105 78 222 0.0 0.0 0.00 0.00 0.00 79 1019.0
20260904064006 78 222 0.0 0.0 0.00 0.00 0.00 79 1019.1
20260904063904 78 222 0.0 0.0 0.00 0.00 0.00 79 1019.1
20260904063805 78 222 0.0 0.0 0.00 0.00 0.00 79 1019.2
20260904063704 78 222 0.0 0.0 0.00 0.00 0.00 79 1019.1
20260904063606 78 222 0.0 0.0 0.00 0.00 0.00 79 1019.1
20260904063505 78 222 0.0 0.0 0.00 0.00 0.00 79 1019.1
20260904063404 78 222 0.0 0.0 0.00 0.00 0.00 79 1019.2
20260904063306 78 222 0.0 0.0 0.00 0.00 0.00 79 1019.1
20260904063204 78 222 0.0 0.0 0.00 0.00 0.00 79 1019.2
20260904063105 78 222 0.0 0.0 0.00 0.00 0.00 79 1019.2
20260904063004 78 222 0.0 0.0 0.00 0.00 0.00 79 1019.2
20260904062905 78 222 0.0 0.0 0.00 0.00 0.00 79 1019.3
20260904062804 78 222 0.0 0.0 0.00 0.00 0.00 79 1019.2
20260904062706 78 222 0.0 0.0 0.00 0.00 0.00 79 1019.4
20260904062606 78 222 0.0 0.0 0.00 0.00 0.00 79 1019.3
20260904062505 78 222 0.0 0.0 0.00 0.00 0.00 79 1019.3
20260904062405 79 222 0.0 0.0 0.00 0.00 0.00 79 1019.3
20260904062306 78 222 0.0 0.0 0.00 0.00 0.00 79 1019.4
20260904062205 78 222 0.0 0.0 0.00 0.00 0.00 78 1019.3
20260904062105 78 222 0.0 0.0 0.00 0.00 0.00 79 1019.4
20260904062006 78 222 0.0 0.0 0.00 0.00 0.00 78 1019.4
20260904061900 78 222 0.0 0.0 0.00 0.00 0.00 78 1019.4
20260904061800 78 222 0.0 0.0 0.00 0.00 0.00 78 1019.4
20260904061702 78 222 0.0 0.0 0.00 0.00 0.00 78 1019.5
20260904061600 78 222 0.0 0.0 0.00 0.00 0.00 78 1019.6
20260904061502 78 222 0.0 0.0 0.00 0.00 0.00 78 1019.6
20260904061400 78 222 0.0 0.0 0.00 0.00 0.00 78 1019.6
20260904061300 78 222 0.0 0.0 0.00 0.00 0.00 78 1019.5
20260904061202 78 222 0.0 0.0 0.00 0.00 0.00 78 1019.5
20260904061101 78 222 0.0 0.0 0.00 0.00 0.00 78 1019.5
20260904061001 78 222 0.0 0.0 0.00 0.00 0.00 78 1019.5
20260904060900 78 222 0.0 0.0 0.00 0.00 0.00 78 1019.4
20260904060800 78 222 0.0 0.0 0.00 0.00 0.00 78 1019.5
20260904060700 78 222 0.0 0.0 0.00 0.00 0.00 78 1019.6
20260904060600 78 222 0.0 0.0 0.00 0.00 0.00 78 1019.4
20260904060501 78 222 0.0 0.0 0.00 0.00 0.00 78 1019.4
20260904060401 78 222 0.0 0.0 0.00 0.00 0.00 78 1019.5
20260904060300 78 222 0.0 0.0 0.00 0.00 0.00 78 1019.5
20260904060200 78 222 0.0 0.0 0.00 0.00 0.00 78 1019.5
20260904060100 78 222 0.0 0.0 0.00 0.00 0.00 78 1019.5
20260904060002 78 222 0.0 0.0 0.00 0.00 0.00 78 1019.5
20260904055900 78 222 0.0 0.0 0.00 0.00 0.00 78 1019.5
20260904055800 78 222 0.0 0.0 0.00 0.00 0.00 78 1019.5
20260904055701 78 222 0.0 0.0 0.00 0.00 0.00 78 1019.5
20260904055602 78 222 0.0 0.0 0.00 0.00 0.00 78 1019.6
20260904055502 78 222 0.0 0.0 0.00 0.00 0.00 78 1019.5
20260904055402 79 222 0.0 0.0 0.00 0.00 0.00 78 1019.6
20260904055300 78 222 0.0 0.0 0.00 0.00 0.00 78 1019.5
20260904055201 78 222 0.0 0.0 0.00 0.00 0.00 78 1019.6
20260904055102 79 222 0.0 0.0 0.00 0.00 0.00 78 1019.4
20260904055002 79 222 0.0 0.0 0.00 0.00 0.00 79 1019.5
20260904054900 79 222 0.0 0.0 0.00 0.00 0.00 79 1019.4
20260904054801 79 222 0.0 0.0 0.00 0.00 0.00 78 1019.6
20260904054702 79 222 0.0 0.0 0.00 0.00 0.00 78 1019.6
20260904054556 79 222 0.0 0.0 0.00 0.00 0.00 78 1019.5
20260904054457 79 222 0.0 0.0 0.00 0.00 0.00 78 1019.6
20260904054356 79 222 0.0 0.0 0.00 0.00 0.00 78 1019.5
20260904054256 79 222 0.0 0.0 0.00 0.00 0.00 78 1019.6
20260904054157 79 222 0.0 0.0 0.00 0.00 0.00 78 1019.6
20260904054054 79 222 0.0 0.0 0.00 0.00 0.00 78 1019.5
20260904053956 79 222 0.0 0.0 0.00 0.00 0.00 78 1019.6
20260904053854 79 222 0.0 0.0 0.00 0.00 0.00 78 1019.5
20260904053753 79 222 0.0 0.0 0.00 0.00 0.00 78 1019.6
20260904053654 79 222 0.0 0.0 0.00 0.00 0.00 78 1019.6
20260904053550 79 222 0.0 0.0 0.00 0.00 0.00 78 1019.5
20260904053448 79 222 0.0 0.0 0.00 0.00 0.00 78 1019.6
20260904053348 79 222 0.0 0.0 0.00 0.00 0.00 78 1019.6
20260904053247 79 222 0.0 0.0 0.00 0.00 0.00 78 1019.7
20260904053147 79 222 0.0 0.0 0.00 0.00 0.00 78 1019.7
20260904053046 79 222 0.0 0.0 0.00 0.00 0.00 78 1019.7
20260904052944 79 222 0.0 0.0 0.00 0.00 0.00 78 1019.6
20260904052842 79 222 0.0 0.0 0.00 0.00 0.00 78 1019.7
20260904052742 79 222 0.0 0.0 0.00 0.00 0.00 78 1019.7
20260904052641 79 222 0.0 0.0 0.00 0.00 0.00 78 1019.8
20260904052540 79 222 0.0 0.0 0.00 0.00 0.00 78 1019.7
20260904052438 79 222 0.0 0.0 0.00 0.00 0.00 78 1019.7
20260904052337 79 222 0.0 0.0 0.00 0.00 0.00 78 1019.7
20260904052234 79 222 0.0 0.0 0.00 0.00 0.00 78 1019.8
20260904052135 79 222 0.0 0.0 0.00 0.00 0.00 78 1019.7
20260904052033 79 222 0.0 0.0 0.00 0.00 0.00 77 1019.7
20260904051930 79 222 0.0 0.0 0.00 0.00 0.00 77 1019.8
20260904051830 79 222 0.0 0.0 0.00 0.00 0.00 78 1019.8
20260904051729 79 222 0.0 0.0 0.00 0.00 0.00 78 1019.8
20260904051629 79 222 0.0 0.0 0.00 0.00 0.00 78 1019.8
20260904051529 79 222 0.0 0.0 0.00 0.00 0.00 78 1019.8
20260904051429 79 222 0.0 0.0 0.00 0.00 0.00 77 1019.8
20260904051324 79 222 0.0 0.0 0.00 0.00 0.00 77 1019.8
20260904051222 79 221 0.0 0.0 0.00 0.00 0.00 77 1019.8
20260904051122 79 221 0.0 0.0 0.00 0.00 0.00 77 1019.8
20260904051022 79 222 0.0 0.0 0.00 0.00 0.00 77 1019.8
20260904050923 79 222 0.0 0.0 0.00 0.00 0.00 77 1019.9
20260904050822 79 222 0.0 0.0 0.00 0.00 0.00 77 1019.9
20260904050722 79 221 0.0 0.0 0.00 0.00 0.00 77 1019.9
20260904050624 79 221 0.0 0.0 0.00 0.00 0.00 77 1019.9
20260904050522 79 222 0.0 0.0 0.00 0.00 0.00 77 1019.9
20260904050423 79 222 0.0 0.0 0.00 0.00 0.00 77 1019.9
20260904050323 79 222 0.0 0.0 0.00 0.00 0.00 77 1019.9
20260904050222 79 221 0.0 0.0 0.00 0.00 0.00 77 1019.9
20260904050123 79 221 0.0 0.0 0.00 0.00 0.00 77 1019.9
20260904050021 79 221 0.0 0.0 0.00 0.00 0.00 77 1019.9
20260904045922 79 221 0.0 0.0 0.00 0.00 0.00 77 1019.9
20260904045818 79 221 0.0 0.0 0.00 0.00 0.00 77 1019.9
20260904045717 79 221 0.0 0.0 0.00 0.00 0.00 77 1020.0
20260904045617 79 221 0.0 0.0 0.00 0.00 0.00 77 1020.0
20260904045514 79 221 0.0 0.0 0.00 0.00 0.00 77 1019.9
20260904045415 79 221 0.0 0.0 0.00 0.00 0.00 77 1019.9
20260904045313 79 221 0.0 0.0 0.00 0.00 0.00 77 1019.9
20260904045211 79 221 0.0 0.0 0.00 0.00 0.00 77 1019.9
20260904045110 79 221 0.0 0.0 0.00 0.00 0.00 77 1019.9
20260904045010 79 221 0.0 0.0 0.00 0.00 0.00 77 1020.0
20260904044909 79 221 0.0 0.0 0.00 0.00 0.00 77 1020.0
20260904044808 79 221 0.0 0.0 0.00 0.00 0.00 77 1020.0
20260904044708 79 221 0.0 0.0 0.00 0.00 0.00 77 1020.0
20260904044602 79 221 0.0 0.0 0.00 0.00 0.00 77 1019.9
20260904044503 79 221 0.0 0.0 0.00 0.00 0.00 77 1020.0
20260904044402 79 221 0.0 0.0 0.00 0.00 0.00 77 1020.0
20260904044304 79 221 0.0 0.0 0.00 0.00 0.00 77 1019.9
20260904044202 79 221 0.0 0.0 0.00 0.00 0.00 77 1019.9
20260904044058 79 221 0.0 0.0 0.00 0.00 0.00 77 1019.9
20260904043957 79 221 0.0 0.0 0.00 0.00 0.00 77 1019.9
20260904043856 79 221 0.0 0.0 0.00 0.00 0.00 77 1020.0
20260904043756 79 221 0.0 0.0 0.00 0.00 0.00 77 1019.9
20260904043657 79 221 0.0 0.0 0.00 0.00 0.00 77 1019.9
20260904043554 79 221 0.0 0.0 0.00 0.00 0.00 77 1019.9
20260904043451 79 221 0.0 0.0 0.00 0.00 0.00 77 1020.0
20260904043350 79 221 0.0 0.0 0.00 0.00 0.00 77 1020.0
20260904043249 79 221 0.0 0.0 0.00 0.00 0.00 77 1020.0
20260904043146 79 221 0.0 0.0 0.00 0.00 0.00 77 1020.0
20260904043040 79 221 0.0 0.0 0.00 0.00 0.00 77 1020.0
20260904042941 79 221 0.0 0.0 0.00 0.00 0.00 77 1020.0
20260904042841 79 221 0.0 0.0 0.00 0.00 0.00 77 1020.0
20260904042740 79 221 0.0 0.0 0.00 0.00 0.00 77 1019.9
20260904042641 79 221 0.0 0.0 0.00 0.00 0.00 77 1020.0
20260904042537 79 221 0.0 0.0 0.00 0.00 0.00 77 1019.9
20260904042435 79 221 0.0 0.0 0.00 0.00 0.00 77 1020.0
20260904042334 79 221 0.0 0.0 0.00 0.00 0.00 77 1020.0
20260904042233 79 221 0.0 0.0 0.00 0.00 0.00 77 1020.0
20260904042134 79 221 0.0 0.0 0.00 0.00 0.00 77 1019.9
20260904042030 79 221 0.0 0.0 0.00 0.00 0.00 77 1019.9
20260904041930 79 221 0.0 0.0 0.00 0.00 0.00 77 1019.9
20260904041828 79 221 0.0 0.0 0.00 0.00 0.00 77 1020.0
20260904041727 79 221 0.0 0.0 0.00 0.00 0.00 77 1019.9
20260904041625 79 221 0.0 0.0 0.00 0.00 0.00 77 1020.0
20260904041525 79 221 0.0 0.0 0.00 0.00 0.00 77 1019.9
20260904041422 79 221 0.0 0.0 0.00 0.00 0.00 77 1019.9
20260904041324 79 221 0.0 0.0 0.00 0.00 0.00 77 1019.9
20260904041221 79 221 0.0 0.0 0.00 0.00 0.00 77 1020.0
20260904041118 79 221 0.0 0.0 0.00 0.00 0.00 77 1019.9
20260904041019 79 221 0.0 0.0 0.00 0.00 0.00 77 1019.9
20260904040916 79 221 0.0 0.0 0.00 0.00 0.00 77 1019.9
20260904040816 80 221 0.0 0.0 0.00 0.00 0.00 77 1019.9
20260904040715 79 221 0.0 0.0 0.00 0.00 0.00 77 1019.9
20260904040614 80 221 0.0 0.0 0.00 0.00 0.00 77 1019.9
20260904040515 80 221 0.0 0.0 0.00 0.00 0.00 77 1019.9
20260904040414 79 221 0.0 0.0 0.00 0.00 0.00 77 1020.0
20260904040315 80 221 0.0 0.0 0.00 0.00 0.00 77 1020.0
20260904040211 80 221 0.0 0.0 0.00 0.00 0.00 77 1019.8
20260904040109 80 221 0.0 0.0 0.00 0.00 0.00 77 1019.9
20260904040010 80 221 0.0 0.0 0.00 0.00 0.00 77 1019.9
20260904035909 80 221 0.0 0.0 0.00 0.00 0.00 77 1020.0
20260904035809 80 221 0.0 0.0 0.00 0.00 0.00 77 1020.0
20260904035709 80 221 0.0 0.0 0.00 0.00 0.00 77 1020.0
20260904035608 80 221 0.0 0.0 0.00 0.00 0.00 77 1020.2
20260904035510 80 221 0.0 0.0 0.00 0.00 0.00 77 1020.0
20260904035408 80 221 0.0 0.0 0.00 0.00 0.00 77 1020.0
20260904035308 80 221 0.0 0.0 0.00 0.00 0.00 77 1020.0
20260904035210 80 221 0.0 0.0 0.00 0.00 0.00 77 1020.2
20260904035108 80 221 0.0 0.0 0.00 0.00 0.00 77 1020.0
20260904035008 80 221 0.0 0.0 0.00 0.00 0.00 77 1019.9
20260904034910 80 221 0.0 0.0 0.00 0.00 0.00 77 1020.0
20260904034808 80 221 0.0 0.0 0.00 0.00 0.00 77 1020.0
20260904034710 80 221 0.0 0.0 0.00 0.00 0.00 77 1020.0
20260904034602 80 221 0.0 0.0 0.00 0.00 0.00 77 1020.0
20260904034501 80 221 0.0 0.0 0.00 0.00 0.00 77 1020.0
20260904034400 80 221 0.0 0.0 0.00 0.00 0.00 77 1020.2
20260904034301 80 221 0.0 0.0 0.00 0.00 0.00 77 1020.0
20260904034202 80 221 0.0 0.0 0.00 0.00 0.00 77 1020.2
20260904034100 80 221 0.0 0.0 0.00 0.00 0.00 77 1020.0
20260904034001 80 221 0.0 0.0 0.00 0.00 0.00 77 1020.2
20260904033900 80 221 0.0 0.0 0.00 0.00 0.00 77 1020.2
20260904033801 80 221 0.0 0.0 0.00 0.00 0.00 77 1020.2
20260904033700 80 221 0.0 0.0 0.00 0.00 0.00 77 1020.2
20260904033600 80 221 0.0 0.0 0.00 0.00 0.00 77 1020.2
20260904033500 80 221 0.0 0.0 0.00 0.00 0.00 77 1020.2
20260904033400 80 221 0.0 0.0 0.00 0.00 0.00 77 1020.2
20260904033301 80 221 0.0 0.0 0.00 0.00 0.00 77 1020.3
20260904033200 80 221 0.0 0.0 0.00 0.00 0.00 77 1020.3
20260904033101 80 221 0.0 0.0 0.00 0.00 0.00 77 1020.3
20260904033000 80 221 0.0 0.0 0.00 0.00 0.00 77 1020.2
20260904032900 80 221 0.0 0.0 0.00 0.00 0.00 77 1020.2
20260904032800 80 221 0.0 0.0 0.00 0.00 0.00 77 1020.2
20260904032702 80 221 0.0 0.0 0.00 0.00 0.00 76 1020.2
20260904032600 80 221 0.0 0.0 0.00 0.00 0.00 76 1020.2
20260904032501 80 221 0.0 0.0 0.00 0.00 0.00 76 1020.2
20260904032400 80 221 0.0 0.0 0.00 0.00 0.00 76 1020.3
20260904032300 80 221 0.0 0.0 0.00 0.00 0.00 76 1020.2
20260904032202 80 221 0.0 0.0 0.00 0.00 0.00 76 1020.2
20260904032102 80 221 0.0 0.0 0.00 0.00 0.00 76 1020.2
20260904032001 80 221 0.0 0.0 0.00 0.00 0.00 76 1020.2
20260904031900 80 221 0.0 0.0 0.00 0.00 0.00 76 1020.2
20260904031801 80 221 0.0 0.0 0.00 0.00 0.00 76 1020.3
20260904031701 80 221 0.0 0.0 0.00 0.00 0.00 76 1020.3
20260904031602 80 221 0.0 0.0 0.00 0.00 0.00 76 1020.3
20260904031500 80 221 0.0 0.0 0.00 0.00 0.00 76 1020.4
20260904031401 80 221 0.0 0.0 0.00 0.00 0.00 76 1020.3
20260904031256 80 221 0.0 0.0 0.00 0.00 0.00 76 1020.3
20260904031158 80 221 0.0 0.0 0.00 0.00 0.00 76 1020.3
20260904031057 80 221 0.0 0.0 0.00 0.00 0.00 76 1020.3
20260904030958 80 221 0.0 0.0 0.00 0.00 0.00 76 1020.2
20260904030857 80 221 0.0 0.0 0.00 0.00 0.00 76 1020.2
20260904030758 80 221 0.0 0.0 0.00 0.00 0.00 76 1020.2
20260904030657 80 221 0.0 0.0 0.00 0.00 0.00 75 1020.3
20260904030556 80 221 0.0 0.0 0.00 0.00 0.00 75 1020.4
20260904030458 80 221 0.0 0.0 0.00 0.00 0.00 75 1020.4
20260904030356 80 221 0.0 0.0 0.00 0.00 0.00 75 1020.3
20260904030257 80 221 0.0 0.0 0.00 0.00 0.00 75 1020.3
20260904030156 80 220 0.0 0.0 0.00 0.00 0.00 75 1020.2
20260904030056 81 220 0.0 0.0 0.00 0.00 0.00 75 1020.3
20260904025958 80 220 0.0 0.0 0.00 0.00 0.00 75 1020.3
20260904025856 81 220 0.0 0.0 0.00 0.00 0.00 75 1020.4
20260904025756 81 220 0.0 0.0 0.00 0.00 0.00 75 1020.3
20260904025658 81 220 0.0 0.0 0.00 0.00 0.00 74 1020.4
20260904025557 81 220 0.0 0.0 0.00 0.00 0.00 75 1020.3
20260904025457 81 219 0.0 0.0 0.00 0.00 0.00 75 1020.3
20260904025357 81 219 0.0 0.0 0.00 0.00 0.00 75 1020.4
20260904025256 81 219 0.0 0.0 0.00 0.00 0.00 74 1020.4
20260904025152 81 219 0.0 0.0 0.00 0.00 0.00 74 1020.4
20260904025049 81 219 0.0 0.0 0.00 0.00 0.00 74 1020.4
20260904024948 81 219 0.0 0.0 0.00 0.00 0.00 74 1020.4
20260904024848 81 219 0.0 0.0 0.00 0.00 0.00 74 1020.4
20260904024746 81 219 0.0 0.0 0.00 0.00 0.00 74 1020.4
20260904024644 81 219 0.0 0.0 0.00 0.00 0.00 74 1020.3
20260904024543 81 218 0.0 0.0 0.00 0.00 0.00 74 1020.3
20260904024441 81 218 0.0 0.0 0.00 0.00 0.00 74 1020.4
20260904024330 81 218 0.0 0.0 0.00 0.00 0.00 74 1020.5
20260904024231 81 218 0.0 0.0 0.00 0.00 0.00 74 1020.4
20260904024130 81 218 0.0 0.0 0.00 0.00 0.00 73 1020.4
20260904024030 81 219 0.0 0.0 0.00 0.00 0.00 73 1020.4
20260904023930 81 219 0.0 0.0 0.00 0.00 0.00 73 1020.5
20260904023832 81 218 0.0 0.0 0.00 0.00 0.00 73 1020.5
20260904023729 81 218 0.0 0.0 0.00 0.00 0.00 73 1020.5
20260904023629 81 218 0.0 0.0 0.00 0.00 0.00 73 1020.5
20260904023526 81 218 0.0 0.0 0.00 0.00 0.00 73 1020.5
20260904023425 81 218 0.0 0.0 0.00 0.00 0.00 73 1020.5
20260904023324 81 218 0.0 0.0 0.00 0.00 0.00 73 1020.5
20260904023224 81 218 0.0 0.0 0.00 0.00 0.00 73 1020.4
20260904023122 81 217 0.0 0.0 0.00 0.00 0.00 73 1020.4
20260904023021 81 217 0.0 0.0 0.00 0.00 0.00 73 1020.4
20260904022919 81 217 0.0 0.0 0.00 0.00 0.00 73 1020.5
20260904022811 81 217 0.0 0.0 0.00 0.00 0.00 72 1020.4
20260904022709 81 217 0.0 0.0 0.00 0.00 0.00 73 1020.4
20260904022608 81 217 0.0 0.0 0.00 0.00 0.00 72 1020.5
20260904022508 81 217 0.0 0.0 0.00 0.00 0.00 72 1020.4
20260904022408 81 217 0.0 0.0 0.00 0.00 0.00 72 1020.5
20260904022306 81 216 0.0 0.0 0.00 0.00 0.00 72 1020.4
20260904022202 81 215 0.0 0.0 0.00 0.00 0.00 72 1020.4
20260904022102 81 214 0.0 0.0 0.00 0.00 0.00 72 1020.4
20260904022002 81 213 0.0 0.0 0.00 0.00 0.00 72 1020.5
20260904021903 81 213 0.0 0.0 0.00 0.00 0.00 72 1020.4
20260904021802 81 213 0.0 0.0 0.00 0.00 0.00 72 1020.4
20260904021701 81 213 0.0 0.0 0.00 0.00 0.00 72 1020.5
20260904021558 81 213 0.0 0.0 0.00 0.00 0.00 72 1020.5
20260904021500 81 213 0.0 0.0 0.00 0.00 0.00 72 1020.5
20260904021357 81 213 0.0 0.0 0.00 0.00 0.00 72 1020.5
20260904021249 81 213 0.0 0.0 0.00 0.00 0.00 72 1020.5
20260904021147 81 215 0.0 0.0 0.00 0.00 0.00 71 1020.5
20260904021046 81 215 0.0 0.0 0.00 0.00 0.00 71 1020.5
20260904020946 81 214 0.0 0.0 0.00 0.00 0.00 71 1020.4
20260904020846 81 214 0.0 0.0 0.00 0.00 0.00 71 1020.4
20260904020748 81 215 0.0 0.0 0.00 0.00 0.00 71 1020.4
20260904020644 81 215 0.0 0.0 0.00 0.00 0.00 71 1020.4
20260904020546 81 215 0.0 0.0 0.00 0.00 0.00 71 1020.4
20260904020441 81 215 0.0 0.0 0.00 0.00 0.00 71 1020.4
20260904020341 81 215 0.0 0.0 0.00 0.00 0.00 70 1020.5
20260904020240 81 215 0.0 0.0 0.00 0.00 0.00 70 1020.4
20260904020139 81 215 0.0 0.0 0.00 0.00 0.00 70 1020.4
20260904020038 81 215 0.0 0.0 0.00 0.00 0.00 70 1020.4
20260904015937 81 215 0.0 0.0 0.00 0.00 0.00 70 1020.4
20260904015835 81 215 0.0 0.0 0.00 0.00 0.00 70 1020.4
20260904015730 81 215 0.0 0.0 0.00 0.00 0.00 70 1020.4
20260904015629 81 215 0.0 0.0 0.00 0.00 0.00 70 1020.4
20260904015528 81 215 0.0 0.0 0.00 0.00 0.00 70 1020.3
20260904015427 81 215 0.0 0.0 0.00 0.00 0.00 69 1020.3
20260904015325 81 215 0.0 0.0 0.00 0.00 0.00 69 1020.4
20260904015225 81 215 0.0 0.0 0.00 0.00 0.00 69 1020.4
20260904015122 81 216 0.0 0.0 0.00 0.00 0.00 69 1020.4
20260904015024 81 216 0.0 0.0 0.00 0.00 0.00 69 1020.4
20260904014921 81 216 0.0 0.0 0.00 0.00 0.00 69 1020.3
20260904014819 81 217 0.0 0.0 0.00 0.00 0.00 69 1020.4
20260904014716 81 216 0.0 0.0 0.00 0.00 0.00 69 1020.4
20260904014616 81 217 0.0 0.0 0.00 0.00 0.00 69 1020.3
20260904014516 81 213 0.0 0.0 0.00 0.00 0.00 69 1020.3
20260904014414 81 213 0.0 0.0 0.00 0.00 0.00 69 1020.3
20260904014312 81 213 0.0 0.0 0.00 0.00 0.00 69 1020.3
20260904014205 81 213 0.0 0.0 0.00 0.00 0.00 69 1020.3
20260904014102 82 213 0.0 0.0 0.00 0.00 0.00 69 1020.2
20260904014002 81 213 0.0 0.0 0.00 0.00 0.00 69 1020.2
20260904013904 81 213 0.0 0.0 0.00 0.00 0.00 69 1020.2
20260904013802 81 213 0.0 0.0 0.00 0.00 0.00 69 1020.3
20260904013703 81 213 0.0 0.0 0.00 0.00 0.00 69 1020.3
20260904013601 81 213 0.0 0.0 0.00 0.00 0.00 69 1020.2
20260904013500 82 213 0.0 0.0 0.00 0.00 0.00 69 1020.2
20260904013400 81 213 0.0 0.0 0.00 0.00 0.00 69 1020.2
20260904013258 81 213 0.0 0.0 0.00 0.00 0.00 70 1020.2
20260904013157 81 213 0.0 0.0 0.00 0.00 0.00 69 1020.2
20260904013056 81 213 0.0 0.0 0.00 0.00 0.00 69 1020.2
20260904012952 81 213 0.0 0.0 0.00 0.00 0.00 69 1020.2
20260904012853 81 213 0.0 0.0 0.00 0.00 0.00 70 1020.0
20260904012751 81 213 0.0 0.0 0.00 0.00 0.00 70 1020.0
20260904012644 81 212 0.0 0.0 0.00 0.00 0.00 70 1019.9
20260904012544 81 213 0.0 0.0 0.00 0.00 0.00 70 1020.0
20260904012445 81 213 0.0 0.0 0.00 0.00 0.00 70 1020.0
20260904012343 81 213 0.0 0.0 0.00 0.00 0.00 70 1020.0
20260904012241 81 213 0.0 0.0 0.00 0.00 0.00 70 1020.2
20260904012140 81 213 0.0 0.0 0.00 0.00 0.00 70 1020.0
20260904012038 81 213 0.0 0.0 0.00 0.00 0.00 70 1020.0
20260904011939 81 213 0.0 0.0 0.00 0.00 0.00 70 1020.0
20260904011836 81 213 0.0 0.0 0.00 0.00 0.00 70 1020.0
20260904011735 81 213 0.0 0.0 0.00 0.00 0.00 70 1020.0
20260904011634 81 213 0.0 0.0 0.00 0.00 0.00 70 1020.0
20260904011533 81 213 0.0 0.0 0.00 0.00 0.00 71 1020.0
20260904011430 81 213 0.0 0.0 0.00 0.00 0.00 71 1020.0
20260904011331 81 213 0.0 0.0 0.00 0.00 0.00 71 1019.9
20260904011228 81 213 0.0 0.0 0.00 0.00 0.00 71 1019.9
20260904011124 81 213 0.0 0.0 0.00 0.00 0.00 71 1019.9
20260904011022 81 213 0.0 0.0 0.00 0.00 0.00 71 1019.9
20260904010923 81 213 0.0 0.0 0.00 0.00 0.00 71 1019.9
20260904010822 81 213 0.0 0.0 0.00 0.00 0.00 71 1019.8
20260904010719 81 233 0.0 0.0 0.00 0.00 0.00 71 1019.9
20260904010618 82 159 0.0 0.0 0.00 0.00 0.00 71 1019.8
20260904010518 82 155 0.0 0.0 0.00 0.00 0.00 71 1019.8
20260904010416 82 140 0.0 0.0 0.00 0.00 0.00 71 1019.8
20260904010316 82 140 0.0 0.0 0.00 0.00 0.00 71 1019.8
20260904010213 82 140 0.0 0.0 0.00 0.00 0.00 71 1019.8
20260904010107 82 101 0.0 0.0 0.00 0.00 0.00 71 1019.8
20260904010007 82 101 0.0 0.0 0.00 0.00 0.00 71 1019.7
20260904005907 82 101 0.0 0.0 0.00 0.00 0.00 71 1019.8
20260904005806 82 101 0.0 0.0 0.00 0.00 0.00 71 1019.8
20260904005706 82 101 0.0 0.0 0.00 0.00 0.00 71 1019.7
20260904005600 82 101 0.0 0.0 0.00 0.00 0.00 71 1019.7
20260904005500 82 103 0.0 0.0 0.00 0.00 0.00 71 1019.7
20260904005401 82 103 0.0 0.0 0.00 0.00 0.00 71 1019.7
20260904005258 82 104 0.0 0.0 0.00 0.00 0.00 71 1019.7
20260904005157 82 104 0.0 0.0 0.00 0.00 0.00 70 1019.6
20260904005057 82 104 0.0 0.0 0.00 0.00 0.00 71 1019.6
20260904004955 82 104 0.0 0.0 0.00 0.00 0.00 70 1019.7
20260904004855 82 104 0.0 0.0 0.00 0.00 0.00 70 1019.6
20260904004753 82 104 0.0 0.0 0.00 0.00 0.00 70 1019.6
20260904004651 82 104 0.0 0.0 0.00 0.00 0.00 70 1019.7
20260904004551 82 104 0.0 0.0 0.00 0.00 0.00 70 1019.6
20260904004447 82 104 0.0 0.0 0.00 0.00 0.00 70 1019.6
20260904004348 82 104 0.0 0.0 0.00 0.00 0.00 70 1019.6
20260904004248 82 104 0.0 0.0 0.00 0.00 0.00 70 1019.6
20260904004145 82 104 0.0 0.0 0.00 0.00 0.00 69 1019.5
20260904004038 82 104 0.0 0.0 0.00 0.00 0.00 69 1019.5
20260904003938 82 104 0.0 0.0 0.00 0.00 0.00 70 1019.5
20260904003839 82 104 0.0 0.0 0.00 0.00 0.00 70 1019.5
20260904003737 82 104 0.0 0.0 0.00 0.00 0.00 70 1019.5
20260904003635 82 104 0.0 0.0 0.00 0.00 0.00 70 1019.4
20260904003534 82 104 0.0 0.0 0.00 0.00 0.00 70 1019.5
20260904003433 82 104 0.0 0.0 0.00 0.00 0.00 70 1019.5
20260904003332 82 104 0.0 0.0 0.00 0.00 0.00 70 1019.4
20260904003231 83 104 0.0 0.0 0.00 0.00 0.00 70 1019.5
20260904003128 83 104 0.0 0.0 0.00 0.00 0.00 70 1019.4
20260904003028 83 104 0.0 0.0 0.00 0.00 0.00 70 1019.4
20260904002927 83 104 0.0 0.0 0.00 0.00 0.00 70 1019.4
20260904002826 83 104 0.0 0.0 0.00 0.00 0.00 70 1019.4
20260904002725 83 104 0.0 0.0 0.00 0.00 0.00 70 1019.3
20260904002623 83 104 0.0 0.0 0.00 0.00 0.00 70 1019.3
20260904002515 83 104 0.0 0.0 0.00 0.00 0.00 70 1019.2
20260904002416 83 104 0.0 0.0 0.00 0.00 0.00 70 1019.3
20260904002317 83 104 0.0 0.0 0.00 0.00 0.00 70 1019.2
20260904002215 83 104 0.0 0.0 0.00 0.00 0.00 70 1019.2
20260904002113 83 104 0.0 0.0 0.00 0.00 0.00 70 1019.2
20260904002006 83 104 0.0 0.0 0.00 0.00 0.00 70 1019.2
20260904001906 83 104 0.0 0.0 0.00 0.00 0.00 70 1019.1
20260904001806 83 104 0.0 0.0 0.00 0.00 0.00 70 1019.2
20260904001707 83 104 0.0 0.0 0.00 0.00 0.00 70 1019.2
20260904001607 83 104 0.0 0.0 0.00 0.00 0.00 69 1019.1
20260904001502 83 104 0.0 0.0 0.00 0.00 0.00 69 1019.1
20260904001404 83 104 0.0 0.0 0.00 0.00 0.00 69 1019.1
20260904001302 83 104 0.0 0.0 0.00 0.00 0.00 69 1019.1
20260904001203 83 104 0.0 0.0 0.00 0.00 0.00 69 1019.2
20260904001100 83 104 0.0 0.0 0.00 0.00 0.00 69 1019.1
20260904000955 84 104 0.0 0.0 0.00 0.00 0.00 69 1019.1
20260904000854 84 104 0.0 0.0 0.00 0.00 0.00 69 1019.1
20260904000754 84 104 0.0 0.0 0.00 0.00 0.00 69 1019.0
20260904000652 84 104 0.0 0.0 0.00 0.00 0.00 69 1019.0
20260904000551 84 104 0.0 0.0 0.00 0.00 0.00 69 1019.1
20260904000451 84 104 0.0 0.0 0.00 0.00 0.00 69 1018.9
20260904000348 84 104 0.0 0.0 0.00 0.00 0.00 69 1018.9
20260904000249 84 104 0.0 0.0 0.00 0.00 0.00 69 1019.1
20260904000148 84 104 0.0 0.0 0.00 0.00 0.00 69 1019.0
20260904000044 84 104 0.0 0.0 0.00 0.00 0.00 69 1019.1
20260903235939 84 104 0.0 0.0 0.00 0.00 0.00 69 1019.0
20260903235839 84 104 0.0 0.0 0.00 0.00 0.00 69 1019.1
20260903235740 84 104 0.0 0.0 0.00 0.00 0.00 69 1019.1
20260903235639 84 104 0.0 0.0 0.00 0.00 0.00 69 1019.0
20260903235539 84 104 0.0 0.0 0.00 0.00 0.00 69 1019.1
20260903235432 84 104 0.0 0.0 0.00 0.00 0.00 69 1019.0
20260903235333 84 104 0.0 0.0 0.00 0.00 0.00 69 1019.0
20260903235232 84 104 0.0 0.0 0.00 0.00 0.00 69 1019.1
20260903235131 85 104 0.0 0.0 0.00 0.00 0.00 69 1019.0
20260903235029 85 104 0.0 0.0 0.00 0.00 0.00 68 1019.0
20260903234924 85 104 0.0 0.0 0.00 0.00 0.00 69 1019.0
20260903234821 85 104 0.0 0.0 0.00 0.00 0.00 69 1019.0
20260903234722 85 104 0.0 0.0 0.00 0.00 0.00 69 1018.9
20260903234622 85 104 0.0 0.0 0.00 0.00 0.00 69 1018.9
20260903234523 85 104 0.0 0.0 0.00 0.00 0.00 69 1018.9
20260903234419 85 104 0.0 0.0 0.00 0.00 0.00 69 1018.9
20260903234316 85 104 0.0 0.0 0.00 0.00 0.00 69 1018.9
20260903234217 85 104 0.0 0.0 0.00 0.00 0.00 69 1018.9
20260903234116 85 104 0.0 0.0 0.00 0.00 0.00 69 1018.9
20260903234016 85 104 0.0 0.0 0.00 0.00 0.00 69 1018.9
20260903233911 85 104 0.0 0.0 0.00 0.00 0.00 69 1018.8
20260903233811 85 104 0.0 0.0 0.00 0.00 0.00 69 1018.9
20260903233710 85 104 0.0 0.0 0.00 0.00 0.00 68 1018.9
20260903233609 85 104 0.0 0.0 0.00 0.00 0.00 68 1018.9
20260903233507 85 104 0.0 0.0 0.00 0.00 0.00 68 1019.0
20260903233404 85 104 0.0 0.0 0.00 0.00 0.00 68 1018.9
20260903233304 85 104 0.0 0.0 0.00 0.00 0.00 68 1018.9
20260903233204 85 104 0.0 0.0 0.00 0.00 0.00 68 1018.8
20260903233103 85 104 0.0 0.0 0.00 0.00 0.00 67 1018.8
20260903233001 85 104 0.0 0.0 0.00 0.00 0.00 68 1018.8
20260903232900 86 104 0.0 0.0 0.00 0.00 0.00 68 1018.8
20260903232758 86 104 0.0 0.0 0.00 0.00 0.00 67 1018.8
20260903232657 86 104 0.0 0.0 0.00 0.00 0.00 67 1018.9
20260903232557 86 104 0.0 0.0 0.00 0.00 0.00 66 1018.8
20260903232454 86 102 0.0 0.0 0.00 0.00 0.00 66 1018.8
20260903232347 86 102 0.0 0.0 0.00 0.00 0.00 66 1018.8
20260903232246 86 100 0.0 0.0 0.00 0.00 0.00 66 1018.9
20260903232147 86 91 0.0 0.0 0.00 0.00 0.00 66 1018.8
20260903232047 86 91 0.0 0.0 0.00 0.00 0.00 67 1018.8
20260903231945 86 91 0.0 0.0 0.00 0.00 0.00 67 1018.8
20260903231845 86 186 0.0 0.0 0.00 0.00 0.00 67 1018.9
20260903231744 86 186 0.0 0.0 0.00 0.00 0.00 66 1019.0
20260903231641 86 168 0.0 0.0 0.00 0.00 0.00 66 1018.9
20260903231541 86 168 0.0 0.0 0.00 0.00 0.00 67 1018.9
20260903231439 86 168 0.0 0.0 0.00 0.00 0.00 67 1018.9
20260903231335 86 168 0.0 0.0 0.00 0.00 0.00 67 1018.8
20260903231237 86 170 0.0 0.0 0.00 0.00 0.00 67 1018.8
20260903231136 86 170 0.0 0.0 0.00 0.00 0.00 67 1018.9
20260903231035 86 166 0.0 0.0 0.00 0.00 0.00 67 1018.8
20260903230933 86 166 0.0 0.0 0.00 0.00 0.00 67 1018.9
20260903230827 86 166 0.0 0.0 0.00 0.00 0.00 67 1018.9
20260903230725 86 166 0.0 0.0 0.00 0.00 0.00 67 1018.9
20260903230624 86 166 0.0 0.0 0.00 0.00 0.00 67 1018.8
20260903230525 87 166 0.0 0.0 0.00 0.00 0.00 66 1018.9
20260903230423 87 293 0.0 0.0 0.00 0.00 0.00 66 1018.8
20260903230317 87 293 0.0 0.0 0.00 0.00 0.00 66 1018.9
20260903230216 87 293 0.0 0.0 0.00 0.00 0.00 66 1018.9
20260903230116 87 293 0.0 0.0 0.00 0.00 0.00 66 1018.9
20260903230017 87 87 0.0 0.0 0.00 0.00 0.00 66 1018.8
20260903225917 87 87 0.0 0.0 0.00 0.00 0.00 65 1018.9
20260903225816 87 51 0.0 0.0 0.00 0.00 0.00 65 1018.9
20260903225715 87 72 0.0 0.0 0.00 0.00 0.00 66 1018.9
20260903225612 87 72 0.0 0.0 0.00 0.00 0.00 65 1019.0
20260903225513 87 74 0.0 0.0 0.00 0.00 0.00 65 1018.9
20260903225410 87 128 0.0 0.0 0.00 0.00 0.00 65 1019.0
20260903225302 87 132 0.0 0.0 0.00 0.00 0.00 65 1018.9
20260903225203 87 132 0.0 0.0 0.00 0.00 0.00 65 1018.9
20260903225100 87 132 0.0 0.0 0.00 0.00 0.00 65 1018.8
20260903225001 87 132 0.0 0.0 0.00 0.00 0.00 64 1018.8
20260903224858 87 132 0.0 0.0 0.00 0.00 0.00 64 1018.9
20260903224755 87 132 0.0 0.0 0.00 0.00 0.00 64 1018.9
20260903224652 87 132 0.0 0.0 0.00 0.00 0.00 65 1018.9
20260903224554 87 132 0.0 0.0 0.00 0.00 0.00 65 1018.8
20260903224453 87 132 0.0 0.0 0.00 0.00 0.00 65 1018.8
20260903224353 87 132 0.0 0.0 0.00 0.00 0.00 65 1018.9
20260903224249 87 132 0.0 0.0 0.00 0.00 0.00 65 1018.8
20260903224151 87 132 0.0 0.0 0.00 0.00 0.00 64 1018.8
20260903224047 87 132 0.0 0.0 0.00 0.00 0.00 64 1018.8
20260903223949 87 132 0.0 0.0 0.00 0.00 0.00 64 1018.7
20260903223847 87 132 0.0 0.0 0.00 0.00 0.00 64 1018.7
20260903223736 87 132 0.0 0.0 0.00 0.00 0.00 64 1018.7
20260903223636 87 132 0.0 0.0 0.00 0.00 0.00 64 1018.7
20260903223536 87 132 0.0 0.0 0.00 0.00 0.00 64 1018.8
20260903223435 87 132 0.0 0.0 0.00 0.00 0.00 64 1018.7
20260903223332 87 132 0.0 0.0 0.00 0.00 0.00 64 1018.8
20260903223232 87 132 0.0 0.0 0.00 0.00 0.00 64 1018.8
20260903223131 87 132 0.0 0.0 0.00 0.00 0.00 64 1018.8
20260903223030 87 132 0.0 0.0 0.00 0.00 0.00 64 1018.8
20260903222929 87 132 0.0 0.0 0.00 0.00 0.00 63 1018.8
20260903222827 88 132 0.0 0.0 0.00 0.00 0.00 65 1018.8
20260903222727 88 132 0.0 0.0 0.00 0.00 0.00 64 1018.8
20260903222625 88 132 0.0 0.0 0.00 0.00 0.00 63 1018.8
20260903222522 88 132 0.0 0.0 0.00 0.00 0.00 64 1018.7
20260903222424 88 132 0.0 0.0 0.00 0.00 0.00 64 1018.9
20260903222320 88 132 0.0 0.0 0.00 0.00 0.00 65 1018.8
20260903222205 88 132 0.0 0.0 0.00 0.00 0.00 65 1018.8
20260903222107 88 132 0.0 0.0 0.00 0.00 0.00 64 1018.8
20260903222006 88 132 0.0 0.0 0.00 0.00 0.00 64 1018.8
20260903221907 88 132 0.0 0.0 0.00 0.00 0.00 64 1018.7
20260903221806 88 132 0.0 0.0 0.00 0.00 0.00 64 1018.8
20260903221701 88 132 0.0 0.0 0.00 0.00 0.00 64 1018.8
20260903221602 88 132 0.0 0.0 0.00 0.00 0.00 63 1018.9
20260903221503 88 132 0.0 0.0 0.00 0.00 0.00 63 1018.8
20260903221403 88 132 0.0 0.0 0.00 0.00 0.00 63 1018.8
20260903221301 88 132 0.0 0.0 0.00 0.00 0.00 63 1018.8
20260903221201 88 132 0.0 0.0 0.00 0.00 0.00 63 1018.8
20260903221058 88 132 0.0 0.0 0.00 0.00 0.00 63 1018.8
20260903220958 89 132 0.0 0.0 0.00 0.00 0.00 63 1018.8
20260903220857 89 132 0.0 0.0 0.00 0.00 0.00 62 1018.8
20260903220754 89 132 0.0 0.0 0.00 0.00 0.00 63 1018.8
20260903220644 89 132 0.0 0.0 0.00 0.00 0.00 62 1018.8
20260903220545 89 132 0.0 0.0 0.00 0.00 0.00 62 1018.8
20260903220444 89 132 0.0 0.0 0.00 0.00 0.00 62 1018.7
20260903220343 89 132 0.0 0.0 0.00 0.00 0.00 62 1018.8
20260903220241 89 132 0.0 0.0 0.00 0.00 0.00 63 1018.8
20260903220137 89 132 0.0 0.0 0.00 0.00 0.00 63 1018.8
20260903220035 89 132 0.0 0.0 0.00 0.00 0.00 63 1018.8
20260903215934 89 132 0.0 0.0 0.00 0.00 0.00 62 1018.9
20260903215834 89 132 0.0 0.0 0.00 0.00 0.00 62 1018.8
20260903215734 89 132 0.0 0.0 0.00 0.00 0.00 62 1018.8
20260903215631 89 132 0.0 0.0 0.00 0.00 0.00 63 1018.9
20260903215532 89 132 0.0 0.0 0.00 0.00 0.00 63 1018.9
20260903215431 89 132 0.0 0.0 0.00 0.00 0.00 62 1018.8
20260903215330 89 132 0.0 0.0 0.00 0.00 0.00 62 1018.9
20260903215228 89 132 0.0 0.0 0.00 0.00 0.00 63 1018.9
20260903215121 89 132 0.0 0.0 0.00 0.00 0.00 62 1018.8
20260903215022 89 132 0.0 0.0 0.00 0.00 0.00 63 1018.9
20260903214923 89 132 0.0 0.0 0.00 0.00 0.00 63 1018.9
20260903214820 89 132 0.0 0.0 0.00 0.00 0.00 62 1018.9
20260903214719 89 132 0.0 0.0 0.00 0.00 0.00 63 1018.8
20260903214618 89 132 0.0 0.0 0.00 0.00 0.00 65 1018.8
20260903214516 89 132 0.0 0.0 0.00 0.00 0.00 65 1018.9
20260903214416 89 132 0.0 0.0 0.00 0.00 0.00 65 1018.8
20260903214315 89 132 0.0 0.0 0.00 0.00 0.00 64 1018.9
20260903214213 89 132 0.0 0.0 0.00 0.00 0.00 65 1018.9
20260903214105 89 132 0.0 0.0 0.00 0.00 0.00 66 1018.9
20260903214006 89 132 0.0 0.0 0.00 0.00 0.00 64 1018.9
20260903213907 89 132 0.0 0.0 0.00 0.00 0.00 65 1018.9
20260903213807 89 132 0.0 0.0 0.00 0.00 0.00 65 1018.9
20260903213706 89 132 0.0 0.0 0.00 0.00 0.00 64 1019.0
20260903213559 89 132 0.0 0.0 0.00 0.00 0.00 64 1019.0
20260903213457 89 132 0.0 0.0 0.00 0.00 0.00 64 1019.0
20260903213356 89 132 0.0 0.0 0.00 0.00 0.00 64 1019.0
20260903213256 89 132 0.0 0.0 0.00 0.00 0.00 65 1019.0
20260903213157 89 132 0.0 0.0 0.00 0.00 0.00 65 1019.0
20260903213052 89 132 0.0 0.0 0.00 0.00 0.00 64 1019.0
20260903212951 89 132 0.0 0.0 0.00 0.00 0.00 64 1019.0
20260903212852 89 132 0.0 0.0 0.00 0.00 0.00 64 1019.0
20260903212753 89 132 0.0 0.0 0.00 0.00 0.00 63 1019.0
20260903212651 89 132 0.0 0.0 0.00 0.00 0.00 64 1019.0
20260903212545 89 132 0.0 0.0 0.00 0.00 0.00 64 1019.0
20260903212447 89 123 0.0 0.0 0.00 0.00 0.00 66 1019.0
20260903212346 89 121 0.0 0.0 0.00 0.00 0.00 67 1019.1
20260903212247 89 121 0.0 0.0 0.00 0.00 0.00 67 1019.0
20260903212145 89 121 0.0 0.0 0.00 0.00 0.00 66 1019.0
20260903212039 89 121 0.0 0.0 0.00 0.00 0.00 67 1019.1
20260903211939 89 121 0.0 0.0 0.00 0.00 0.00 66 1019.0
20260903211839 89 121 0.0 0.0 0.00 0.00 0.00 66 1019.1
20260903211736 88 121 0.0 0.0 0.00 0.00 0.00 66 1019.0
20260903211634 88 121 0.0 0.0 0.00 0.00 0.00 66 1019.0
20260903211535 88 121 0.0 0.0 0.00 0.00 0.00 65 1019.0
20260903211432 88 122 0.0 0.0 0.00 0.00 0.00 65 1019.1
20260903211333 88 126 0.0 0.0 0.00 0.00 0.00 66 1019.1
20260903211230 88 126 0.0 0.0 0.00 0.00 0.00 67 1019.1
20260903211129 88 126 0.0 0.0 0.00 0.00 0.00 66 1019.1
20260903211025 88 126 0.0 0.0 0.00 0.00 0.00 64 1019.1
20260903210923 88 126 0.0 0.0 0.00 0.00 0.00 66 1019.1
20260903210824 88 126 0.0 0.0 0.00 0.00 0.00 67 1019.1
20260903210725 88 126 0.0 0.0 0.00 0.00 0.00 66 1019.2
20260903210623 88 126 0.0 0.0 0.00 0.00 0.00 68 1019.1
20260903210513 88 126 0.0 0.0 0.00 0.00 0.00 67 1019.2
20260903210412 88 126 0.0 0.0 0.00 0.00 0.00 65 1019.2
20260903210314 88 126 0.0 0.0 0.00 0.00 0.00 67 1019.2
20260903210213 88 126 0.0 0.0 0.00 0.00 0.00 65 1019.2
20260903210112 88 126 0.0 0.0 0.00 0.00 0.00 67 1019.3
20260903210009 88 126 0.0 0.0 0.00 0.00 0.00 67 1019.3
20260903205907 88 126 0.0 0.0 0.00 0.00 0.00 66 1019.3
20260903205805 88 126 0.0 0.0 0.00 0.00 0.00 66 1019.2
20260903205707 88 126 0.0 0.0 0.00 0.00 0.00 66 1019.2
20260903205606 88 126 0.0 0.0 0.00 0.00 0.00 69 1019.3
20260903205502 88 126 0.0 0.0 0.00 0.00 0.00 66 1019.3
20260903205403 88 126 0.0 0.0 0.00 0.00 0.00 66 1019.3
20260903205306 88 126 0.0 0.0 0.00 0.00 0.00 65 1019.4
20260903205203 88 126 0.0 0.0 0.00 0.00 0.00 65 1019.4
20260903205101 88 126 0.0 0.0 0.00 0.00 0.00 65 1019.3
20260903204957 89 126 0.0 0.0 0.00 0.00 0.00 64 1019.4
20260903204855 89 126 0.0 0.0 0.00 0.00 0.00 63 1019.4
20260903204755 89 125 0.0 0.0 0.00 0.00 0.00 63 1019.4
20260903204653 89 125 0.0 0.0 0.00 0.00 0.00 64 1019.4
20260903204551 89 124 0.0 0.0 0.00 0.00 0.00 63 1019.5
20260903204450 89 124 0.0 0.0 0.00 0.00 0.00 64 1019.4
20260903204348 89 123 0.0 0.0 0.00 0.00 0.00 63 1019.4
20260903204249 89 123 0.0 0.0 0.00 0.00 0.00 62 1019.4
20260903204146 89 123 0.0 0.0 0.00 0.00 0.00 61 1019.4
20260903204044 89 111 0.0 0.0 0.00 0.00 0.00 61 1019.4
20260903203945 89 107 0.0 0.0 0.00 0.00 0.00 62 1019.4
20260903203842 90 107 0.0 0.0 0.00 0.00 0.00 61 1019.4
20260903203742 90 107 0.0 0.0 0.00 0.00 0.00 62 1019.3
20260903203641 90 107 0.0 0.0 0.00 0.00 0.00 62 1019.4
20260903203539 90 106 0.0 0.0 0.00 0.00 0.00 61 1019.3
20260903203429 90 107 0.0 0.0 0.00 0.00 0.00 60 1019.3
20260903203328 90 106 0.0 0.0 0.00 0.00 0.00 61 1019.4
20260903203228 90 106 0.0 0.0 0.00 0.00 0.00 61 1019.4
20260903203129 90 106 0.0 0.0 0.00 0.00 0.00 61 1019.4
20260903203029 90 106 0.0 0.0 0.00 0.00 0.00 60 1019.4
20260903202929 90 106 0.0 0.0 0.00 0.00 0.00 59 1019.4
20260903202827 90 106 0.0 0.0 0.00 0.00 0.00 58 1019.5
20260903202727 90 106 0.0 0.0 0.00 0.00 0.00 59 1019.4
20260903202625 90 106 0.0 0.0 0.00 0.00 0.00 58 1019.5
20260903202523 90 105 0.0 0.0 0.00 0.00 0.00 58 1019.5
20260903202418 90 105 0.0 0.0 0.00 0.00 0.00 57 1019.6
20260903202315 90 105 0.0 0.0 0.00 0.00 0.00 56 1019.5
20260903202216 90 105 0.0 0.0 0.00 0.00 0.00 58 1019.4
20260903202117 91 105 0.0 0.0 0.00 0.00 0.00 56 1019.5
20260903202017 91 105 0.0 0.0 0.00 0.00 0.00 58 1019.4
20260903201917 91 121 0.0 0.0 0.00 0.00 0.00 58 1019.5
20260903201814 91 135 0.0 0.0 0.00 0.00 0.00 56 1019.5
20260903201715 91 135 0.0 0.0 0.00 0.00 0.00 57 1019.4
20260903201613 91 135 0.0 0.0 0.00 0.00 0.00 56 1019.4
20260903201513 91 135 0.0 0.0 0.00 0.00 0.00 56 1019.5
20260903201410 91 96 0.0 0.0 0.00 0.00 0.00 57 1019.5
20260903201308 91 96 0.0 0.0 0.00 0.00 0.00 58 1019.5
20260903201209 91 98 0.0 0.0 0.00 0.00 0.00 59 1019.5
20260903201108 91 130 0.0 0.0 0.00 0.00 0.00 56 1019.5
20260903201007 91 133 0.0 0.0 0.00 0.00 0.00 56 1019.5
20260903200908 91 132 0.0 0.0 0.00 0.00 0.00 58 1019.7
20260903200809 91 132 0.0 0.0 0.00 0.00 0.00 58 1019.6
20260903200708 91 112 0.0 0.0 0.00 0.00 0.00 59 1019.6
20260903200609 91 117 0.0 0.0 0.00 0.00 0.00 59 1019.6
20260903200507 91 123 0.0 0.0 0.00 0.00 0.00 59 1019.6
20260903200408 91 119 0.0 0.0 0.00 0.00 0.00 59 1019.7
20260903200309 91 119 0.0 0.0 0.00 0.00 0.00 58 1019.7
20260903200208 91 121 0.0 0.0 0.00 0.00 0.00 58 1019.7
20260903200107 91 92 0.0 0.0 0.00 0.00 0.00 59 1019.7
20260903200005 91 119 0.0 0.0 0.00 0.00 0.00 58 1019.6
20260903195905 91 120 0.0 0.0 0.00 0.00 0.00 57 1019.6
20260903195806 91 120 0.0 0.0 0.00 0.00 0.00 59 1019.8
20260903195706 91 66 0.0 0.0 0.00 0.00 0.00 58 1019.7
20260903195604 91 66 0.0 0.0 0.00 0.00 0.00 56 1019.7
20260903195504 91 66 0.0 0.0 0.00 0.00 0.00 55 1019.8
20260903195405 91 66 0.0 0.0 0.00 0.00 0.00 55 1019.8
20260903195306 91 66 0.0 0.0 0.00 0.00 0.00 56 1019.8
20260903195203 91 67 0.0 0.0 0.00 0.00 0.00 56 1019.8
20260903195104 91 67 0.0 0.0 0.00 0.00 0.00 58 1019.7
20260903195005 91 69 0.0 0.0 0.00 0.00 0.00 59 1019.9
20260903194903 91 69 0.0 0.0 0.00 0.00 0.00 57 1019.7
20260903194804 91 69 0.0 0.0 0.00 0.00 0.00 56 1019.8
20260903194705 91 69 0.0 0.0 0.00 0.00 0.00 55 1019.8
20260903194604 91 69 0.0 0.0 0.00 0.00 0.00 57 1019.8
20260903194503 91 69 0.0 0.0 0.00 0.00 0.00 58 1019.8
20260903194403 91 69 0.0 0.0 0.00 0.00 0.00 58 1019.8
20260903194305 91 69 0.0 0.0 0.00 0.00 0.00 58 1019.9
20260903194203 91 69 0.0 0.0 0.00 0.00 0.00 56 1019.9
20260903194104 91 69 0.0 0.0 0.00 0.00 0.00 57 1019.9
20260903194005 91 69 0.0 0.0 0.00 0.00 0.00 56 1019.9
20260903193904 91 69 0.0 0.0 0.00 0.00 0.00 56 1019.9
20260903193805 91 69 0.0 0.0 0.00 0.00 0.00 56 1019.9
20260903193702 91 69 0.0 0.0 0.00 0.00 0.00 58 1019.9
20260903193601 91 69 0.0 0.0 0.00 0.00 0.00 58 1019.9
20260903193502 91 70 0.0 0.0 0.00 0.00 0.00 58 1019.9
20260903193403 91 70 0.0 0.0 0.00 0.00 0.00 59 1019.9
20260903193256 91 70 0.0 0.0 0.00 0.00 0.00 59 1020.0
20260903193155 91 70 0.0 0.0 0.00 0.00 0.00 60 1020.0
20260903193056 91 69 0.0 0.0 0.00 0.00 0.00 58 1019.9
20260903192956 91 69 0.0 0.0 0.00 0.00 0.00 57 1019.9
20260903192857 91 69 0.0 0.0 0.00 0.00 0.00 57 1020.0
20260903192753 91 68 0.0 0.0 0.00 0.00 0.00 61 1020.0
20260903192651 90 68 0.0 0.0 0.00 0.00 0.00 58 1020.2
20260903192551 90 121 0.0 0.0 0.00 0.00 0.00 60 1020.0
20260903192450 90 123 0.0 0.0 0.00 0.00 0.00 58 1020.0
20260903192351 90 86 0.0 0.0 0.00 0.00 0.00 58 1020.2
20260903192249 90 84 0.0 0.0 0.00 0.00 0.00 57 1020.0
20260903192148 90 84 0.0 0.0 0.00 0.00 0.00 57 1020.0
20260903192047 90 84 0.0 0.0 0.00 0.00 0.00 56 1020.0
20260903191949 90 84 0.0 0.0 0.00 0.00 0.00 56 1020.0
20260903191847 90 84 0.0 0.0 0.00 0.00 0.00 59 1020.2
20260903191748 90 84 0.0 0.0 0.00 0.00 0.00 56 1020.2
20260903191648 90 84 0.0 0.0 0.00 0.00 0.00 59 1020.2
20260903191548 90 84 0.0 0.0 0.00 0.00 0.00 58 1020.3
20260903191447 90 85 0.0 0.0 0.00 0.00 0.00 63 1020.2
20260903191347 90 127 0.0 0.0 0.00 0.00 0.00 61 1020.2
20260903191247 89 97 0.0 0.0 0.00 0.00 0.00 61 1020.2
20260903191149 89 93 0.0 0.0 0.00 0.00 0.00 59 1020.3
20260903191048 89 93 0.0 0.0 0.00 0.00 0.00 58 1020.2
20260903190946 89 93 0.0 0.0 0.00 0.00 0.00 58 1020.3
20260903190846 89 96 0.0 0.0 0.00 0.00 0.00 58 1020.2
20260903190744 89 96 0.0 0.0 0.00 0.00 0.00 61 1020.2
20260903190643 89 94 0.0 0.0 0.00 0.00 0.00 58 1020.3
20260903190543 89 93 0.0 0.0 0.00 0.00 0.00 59 1020.2
20260903190441 89 47 0.0 0.0 0.00 0.00 0.00 60 1020.2
20260903190341 89 48 0.0 0.0 0.00 0.00 0.00 60 1020.3
20260903190241 89 47 0.0 0.0 0.00 0.00 0.00 61 1020.3
20260903190139 89 98 0.0 0.0 0.00 0.00 0.00 62 1020.3
20260903190039 89 99 0.0 0.0 0.00 0.00 0.00 61 1020.3
20260903185936 89 99 0.0 0.0 0.00 0.00 0.00 60 1020.2
20260903185835 89 99 0.0 0.0 0.00 0.00 0.00 60 1020.3
20260903185735 89 139 0.0 0.0 0.00 0.00 0.00 60 1020.2
20260903185632 89 121 0.0 0.0 0.00 0.00 0.00 62 1020.3
20260903185532 89 97 0.0 0.0 0.00 0.00 0.00 61 1020.3
20260903185433 89 79 0.0 0.0 0.00 0.00 0.00 59 1020.3
20260903185332 89 81 0.0 0.0 0.00 0.00 0.00 64 1020.3
20260903185233 89 108 0.0 0.0 0.00 0.00 0.00 63 1020.3
20260903185132 89 113 0.0 0.0 0.00 0.00 0.00 64 1020.3
20260903185029 89 109 0.0 0.0 0.00 0.00 0.00 63 1020.4
20260903184930 89 28 0.0 0.0 0.00 0.00 0.00 65 1020.4
20260903184824 89 67 0.0 0.0 0.00 0.00 0.00 63 1020.4
20260903184724 89 336 0.0 0.0 0.00 0.00 0.00 62 1020.4
20260903184624 89 334 0.0 0.0 0.00 0.00 0.00 62 1020.4
20260903184524 89 343 0.0 0.0 0.00 0.00 0.00 64 1020.4
20260903184425 89 338 0.0 0.0 0.00 0.00 0.00 63 1020.4
20260903184325 89 338 0.0 0.0 0.00 0.00 0.00 63 1020.5
20260903184223 89 324 0.0 0.0 0.00 0.00 0.00 62 1020.5
20260903184122 89 325 0.0 0.0 0.00 0.00 0.00 62 1020.6
20260903184022 89 325 0.0 0.0 0.00 0.00 0.00 64 1020.6
20260903183922 89 308 0.0 0.0 0.00 0.00 0.00 63 1020.6
20260903183822 89 305 0.0 0.0 0.00 0.00 0.00 61 1020.6
20260903183722 89 305 0.0 0.0 0.00 0.00 0.00 60 1020.6
20260903183622 89 305 0.0 0.0 0.00 0.00 0.00 60 1020.5
20260903183521 89 312 0.0 0.0 0.00 0.00 0.00 62 1020.6
20260903183422 89 313 0.0 0.0 0.00 0.00 0.00 63 1020.6
20260903183322 89 342 0.0 0.0 0.00 0.00 0.00 60 1020.6
20260903183221 89 342 0.0 0.0 0.00 0.00 0.00 63 1020.7
20260903183121 89 355 0.0 0.0 0.00 0.00 0.00 63 1020.6
20260903183023 89 5 0.0 0.0 0.00 0.00 0.00 62 1020.6
20260903182917 89 5 0.0 0.0 0.00 0.00 0.00 63 1020.7
20260903182818 89 5 0.0 0.0 0.00 0.00 0.00 65 1020.7
20260903182717 89 9 0.0 0.0 0.00 0.00 0.00 62 1020.7
20260903182617 89 10 0.0 0.0 0.00 0.00 0.00 62 1020.7
20260903182519 89 25 0.0 0.0 0.00 0.00 0.00 60 1020.8
20260903182419 89 24 0.0 0.0 0.00 0.00 0.00 63 1020.7
20260903182318 89 30 0.0 0.0 0.00 0.00 0.00 60 1020.7
20260903182217 89 18 0.0 0.0 0.00 0.00 0.00 62 1020.7
20260903182119 89 350 0.0 0.0 0.00 0.00 0.00 63 1020.6
20260903182018 89 350 0.0 1.7 0.00 0.00 0.00 62 1020.7
20260903181918 89 350 0.0 2.6 0.00 0.00 0.00 62 1020.7
20260903181818 88 350 0.0 2.6 0.00 0.00 0.00 61 1020.6
20260903181718 88 350 0.0 2.6 0.00 0.00 0.00 63 1020.7
20260903181618 88 295 0.0 2.6 0.00 0.00 0.00 64 1020.7
20260903181519 88 295 0.0 3.5 0.00 0.00 0.00 65 1020.7
20260903181417 88 335 0.0 3.5 0.00 0.00 0.00 63 1020.7
20260903181319 88 335 0.0 3.5 0.00 0.00 0.00 64 1020.7
20260903181218 88 335 0.0 3.5 0.00 0.00 0.00 62 1020.7
20260903181118 88 335 0.0 3.5 0.00 0.00 0.00 62 1020.8
20260903181018 88 355 0.0 3.5 0.00 0.00 0.00 62 1020.8
20260903180918 88 5 0.0 3.5 0.00 0.00 0.00 62 1020.7
20260903180818 88 36 0.0 3.5 0.00 0.00 0.00 62 1020.8
20260903180717 88 36 0.0 3.5 0.00 0.00 0.00 61 1020.8
20260903180618 88 33 0.0 3.5 0.00 0.00 0.00 64 1020.9
20260903180518 88 28 0.0 0.0 0.00 0.00 0.00 64 1020.8
20260903180419 88 50 0.0 0.0 0.00 0.00 0.00 64 1020.8
20260903180309 88 331 0.0 0.0 0.00 0.00 0.00 63 1020.8
20260903180210 88 331 0.0 0.0 0.00 0.00 0.00 64 1020.9
20260903180110 88 329 0.0 2.6 0.00 0.00 0.00 62 1020.9
20260903180011 88 342 0.0 2.6 0.00 0.00 0.00 63 1020.9
20260903175909 88 5 0.0 5.2 0.00 0.00 0.00 64 1020.9
20260903175809 88 49 0.0 5.2 0.00 0.00 0.00 63 1020.9
20260903175711 88 35 0.0 5.2 0.00 0.00 0.00 62 1021.0
20260903175609 88 30 0.0 5.2 0.00 0.00 0.00 61 1021.0
20260903175510 88 27 0.0 5.2 0.00 0.00 0.00 61 1021.0
20260903175410 88 25 0.0 5.2 0.00 0.00 0.00 62 1021.0
20260903175310 88 5 0.0 5.2 0.00 0.00 0.00 59 1021.0
20260903175209 88 0 0.0 5.2 0.00 0.00 0.00 61 1021.0
20260903175111 88 350 0.0 5.2 0.00 0.00 0.00 61 1021.1
20260903175009 88 355 0.0 5.2 0.00 0.00 0.00 62 1021.1
20260903174910 88 38 0.0 2.6 0.00 0.00 0.00 63 1021.0
20260903174811 88 338 0.0 2.6 0.00 0.00 0.00 61 1021.1
20260903174711 88 338 0.0 2.6 0.00 0.00 0.00 61 1021.1
20260903174610 88 348 0.0 2.6 0.00 0.00 0.00 61 1021.1
20260903174509 89 5 0.0 2.6 0.00 0.00 0.00 62 1021.0
20260903174411 89 5 0.0 2.6 0.00 0.00 0.00 63 1021.1
20260903174310 89 19 0.0 2.6 0.00 0.00 0.00 62 1021.1
20260903174210 89 327 0.0 0.0 0.00 0.00 0.00 63 1021.0
20260903174109 89 355 0.0 0.0 0.00 0.00 0.00 62 1021.0
20260903174011 89 0 0.0 0.0 0.00 0.00 0.00 61 1021.1
20260903173910 89 343 0.0 0.0 0.00 0.00 0.00 62 1021.1
20260903173811 89 338 0.0 0.0 0.00 0.00 0.00 59 1021.1
20260903173710 89 5 0.0 0.0 0.00 0.00 0.00 63 1021.1
20260903173611 89 5 0.0 2.6 0.00 0.00 0.00 63 1021.1
20260903173510 89 5 0.0 2.6 0.00 0.00 0.00 62 1021.2
20260903173409 89 5 0.0 2.6 0.00 0.00 0.00 65 1021.2
20260903173310 89 5 0.0 2.6 0.00 0.00 0.00 62 1021.2
20260903173210 89 5 0.0 3.5 0.00 0.00 0.00 63 1021.2
20260903173110 89 16 0.0 3.5 0.00 0.00 0.00 64 1021.2
20260903173007 89 35 0.0 3.5 0.00 0.00 0.00 62 1021.2
20260903172905 89 123 0.0 3.5 0.00 0.00 0.00 64 1021.2
20260903172805 88 123 0.0 3.5 0.00 0.00 0.00 62 1021.3
20260903172706 88 123 0.0 3.5 0.00 0.00 0.00 64 1021.2
20260903172606 88 124 0.0 3.5 0.00 0.00 0.00 63 1021.3
20260903172505 88 127 0.0 3.5 0.00 0.00 0.00 65 1021.3
20260903172406 88 138 0.0 3.5 0.00 0.00 0.00 63 1021.2
20260903172306 88 140 0.9 6.1 0.00 0.00 0.00 63 1021.3
20260903172206 88 151 0.9 6.1 0.00 0.00 0.00 63 1021.3
20260903172106 88 155 0.9 6.1 0.00 0.00 0.00 64 1021.3
20260903172007 88 92 0.9 6.1 0.00 0.00 0.00 64 1021.3
20260903171905 88 92 0.9 6.1 0.00 0.00 0.00 63 1021.3
20260903171806 88 92 1.7 6.1 0.00 0.00 0.00 64 1021.3
20260903171707 88 108 1.7 6.1 0.00 0.00 0.00 63 1021.3
20260903171605 88 108 1.7 6.1 0.00 0.00 0.00 64 1021.3
20260903171506 88 101 0.9 6.1 0.00 0.00 0.00 65 1021.4
20260903171405 88 89 1.7 6.1 0.00 0.00 0.00 65 1021.3
20260903171306 88 101 0.9 6.1 0.00 0.00 0.00 66 1021.3
20260903171205 88 51 0.9 6.1 0.00 0.00 0.00 64 1021.3
20260903171106 88 54 0.9 6.1 0.00 0.00 0.00 64 1021.3
20260903171005 88 63 0.9 6.1 0.00 0.00 0.00 65 1021.4
20260903170906 88 59 0.9 6.1 0.00 0.00 0.00 64 1021.4
20260903170807 88 32 0.9 6.1 0.00 0.00 0.00 68 1021.4
20260903170705 88 32 0.9 6.1 0.00 0.00 0.00 65 1021.3
20260903170605 88 62 0.9 6.1 0.00 0.00 0.00 64 1021.4
20260903170507 88 346 0.9 6.1 0.00 0.00 0.00 64 1021.4
20260903170406 88 5 0.9 6.1 0.00 0.00 0.00 64 1021.4
20260903170305 88 50 0.9 3.5 0.00 0.00 0.00 63 1021.4
20260903170205 88 50 0.9 6.1 0.00 0.00 0.00 64 1021.5
20260903170106 88 68 0.9 6.1 0.00 0.00 0.00 63 1021.4
20260903170006 88 61 1.7 7.0 0.00 0.00 0.00 68 1021.4
20260903165905 88 41 1.7 7.0 0.00 0.00 0.00 67 1021.4
20260903165807 88 38 1.7 7.0 0.00 0.00 0.00 65 1021.4
20260903165701 88 61 1.7 7.0 0.00 0.00 0.00 63 1021.5
20260903165602 88 61 1.7 7.0 0.00 0.00 0.00 64 1021.4
20260903165501 88 61 2.6 7.0 0.00 0.00 0.00 62 1021.5
20260903165401 88 61 2.6 7.0 0.00 0.00 0.00 64 1021.5
20260903165305 88 61 2.6 7.0 0.00 0.00 0.00 64 1021.5
20260903165201 88 90 2.6 7.0 0.00 0.00 0.00 64 1021.6
20260903165101 88 71 2.6 7.0 0.00 0.00 0.00 65 1021.5
20260903165002 88 92 2.6 7.8 0.00 0.00 0.00 66 1021.5
20260903164902 88 315 2.6 7.8 0.00 0.00 0.00 63 1021.5
20260903164803 88 51 2.6 7.8 0.00 0.00 0.00 63 1021.6
20260903164702 88 49 2.6 7.8 0.00 0.00 0.00 63 1021.5
20260903164601 88 109 2.6 7.8 0.00 0.00 0.00 63 1021.6
20260903164502 88 109 2.6 7.8 0.00 0.00 0.00 65 1021.6
20260903164403 88 102 2.6 7.8 0.00 0.00 0.00 65 1021.6
20260903164301 88 103 2.6 7.8 0.00 0.00 0.00 64 1021.6
20260903164201 88 115 2.6 7.8 0.00 0.00 0.00 64 1021.6
20260903164102 88 91 2.6 7.8 0.00 0.00 0.00 65 1021.6
20260903164003 88 107 2.6 6.1 0.00 0.00 0.00 65 1021.6
20260903163902 88 104 2.6 6.1 0.00 0.00 0.00 64 1021.6
20260903163801 88 144 2.6 5.2 0.00 0.00 0.00 65 1021.6
20260903163701 88 134 2.6 6.1 0.00 0.00 0.00 65 1021.5
20260903163604 88 36 3.5 7.0 0.00 0.00 0.00 65 1021.5
20260903163502 88 36 3.5 7.0 0.00 0.00 0.00 66 1021.6
20260903163401 88 63 3.5 7.0 0.00 0.00 0.00 63 1021.5
20260903163302 88 65 3.5 7.0 0.00 0.00 0.00 62 1021.5
20260903163203 88 52 3.5 7.0 0.00 0.00 0.00 65 1021.5
20260903163102 88 59 3.5 7.0 0.00 0.00 0.00 63 1021.5
20260903163002 88 61 3.5 7.0 0.00 0.00 0.00 62 1021.5
20260903162901 88 56 3.5 7.0 0.00 0.00 0.00 63 1021.6
20260903162802 88 86 3.5 7.0 0.00 0.00 0.00 64 1021.5
20260903162701 88 97 2.6 7.0 0.00 0.00 0.00 62 1021.5
20260903162602 88 90 2.6 7.0 0.00 0.00 0.00 63 1021.5
20260903162503 88 94 2.6 7.0 0.00 0.00 0.00 65 1021.6
20260903162355 88 79 2.6 7.0 0.00 0.00 0.00 65 1021.6
20260903162256 88 74 1.7 7.0 0.00 0.00 0.00 64 1021.6
20260903162157 88 21 1.7 6.1 0.00 0.00 0.00 66 1021.6
20260903162057 88 18 2.6 6.1 0.00 0.00 0.00 68 1021.6
20260903161955 88 18 2.6 6.1 0.00 0.00 0.00 66 1021.6
20260903161851 88 17 2.6 6.1 0.00 0.00 0.00 65 1021.6
20260903161753 88 78 2.6 6.1 0.00 0.00 0.00 65 1021.6
20260903161651 88 79 2.6 6.1 0.00 0.00 0.00 66 1021.6
20260903161553 88 136 2.6 6.1 0.00 0.00 0.00 65 1021.6
20260903161450 88 126 2.6 6.1 0.00 0.00 0.00 65 1021.6
20260903161343 88 117 2.6 6.1 0.00 0.00 0.00 64 1021.7
20260903161241 88 126 2.6 6.1 0.00 0.00 0.00 64 1021.6
20260903161142 88 126 2.6 7.0 0.00 0.00 0.00 66 1021.7
20260903161039 88 121 2.6 7.0 0.00 0.00 0.00 64 1021.7
20260903160938 88 146 2.6 7.0 0.00 0.00 0.00 65 1021.7
20260903160833 88 146 2.6 7.0 0.00 0.00 0.00 65 1021.7
20260903160733 88 99 2.6 7.0 0.00 0.00 0.00 65 1021.7
20260903160632 88 98 2.6 7.0 0.00 0.00 0.00 65 1021.7
20260903160532 88 97 2.6 7.0 0.00 0.00 0.00 64 1021.6
20260903160430 88 97 1.7 7.0 0.00 0.00 0.00 63 1021.6
20260903160325 88 92 1.7 7.0 0.00 0.00 0.00 64 1021.6
20260903160225 88 98 1.7 7.0 0.00 0.00 0.00 66 1021.6
20260903160125 88 85 0.9 4.3 0.00 0.00 0.00 66 1021.6
20260903160027 88 82 0.9 3.5 0.00 0.00 0.00 67 1021.7
20260903155923 87 82 0.9 3.5 0.00 0.00 0.00 66 1021.6
20260903155813 87 82 0.9 3.5 0.00 0.00 0.00 65 1021.6
20260903155714 87 82 0.9 3.5 0.00 0.00 0.00 64 1021.9
20260903155614 87 117 0.9 2.6 0.00 0.00 0.00 68 1021.7
20260903155514 87 127 0.9 2.6 0.00 0.00 0.00 68 1021.9
20260903155414 87 127 0.9 2.6 0.00 0.00 0.00 68 1021.9
20260903155307 87 127 0.0 2.6 0.00 0.00 0.00 67 1021.9
20260903155207 87 127 0.0 2.6 0.00 0.00 0.00 68 1021.9
20260903155109 87 127 0.0 2.6 0.00 0.00 0.00 67 1021.9
20260903155007 87 127 0.0 2.6 0.00 0.00 0.00 69 1022.0
20260903154907 87 128 0.0 0.0 0.00 0.00 0.00 66 1022.0
20260903154802 87 127 0.0 0.0 0.00 0.00 0.00 68 1022.0
20260903154702 87 96 0.0 0.0 0.00 0.00 0.00 70 1022.0
20260903154603 87 94 0.0 0.0 0.00 0.00 0.00 69 1022.0
20260903154501 87 103 0.0 0.0 0.00 0.00 0.00 67 1022.0
20260903154402 87 103 0.0 0.0 0.00 0.00 0.00 67 1021.9
20260903154251 87 103 0.0 0.0 0.00 0.00 0.00 69 1021.9
20260903154152 87 78 0.0 0.0 0.00 0.00 0.00 70 1022.0
20260903154052 87 77 0.0 0.0 0.00 0.00 0.00 69 1021.9
20260903153952 87 78 0.0 0.0 0.00 0.00 0.00 69 1022.0
20260903153852 87 82 0.0 0.0 0.00 0.00 0.00 69 1022.0
20260903153748 87 81 0.0 0.0 0.00 0.00 0.00 74 1022.0
20260903153648 87 30 0.0 0.0 0.00 0.00 0.00 73 1021.9
20260903153547 86 29 0.0 0.0 0.00 0.00 0.00 72 1022.0
20260903153448 86 30 0.0 0.0 0.00 0.00 0.00 72 1022.0
20260903153345 86 30 0.0 0.0 0.00 0.00 0.00 72 1022.0
20260903153245 86 30 0.0 0.0 0.00 0.00 0.00 72 1021.9
20260903153145 86 30 0.0 0.0 0.00 0.00 0.00 72 1022.0
20260903153043 86 30 0.0 0.0 0.00 0.00 0.00 73 1022.0
20260903152943 86 69 0.0 0.0 0.00 0.00 0.00 72 1022.0
20260903152840 86 69 0.0 0.0 0.00 0.00 0.00 73 1021.9
20260903152734 86 77 0.0 0.0 0.00 0.00 0.00 74 1022.0
20260903152633 86 53 0.0 0.0 0.00 0.00 0.00 73 1022.0
20260903152534 87 16 0.0 0.0 0.00 0.00 0.00 73 1021.9
20260903152432 87 16 0.0 0.0 0.00 0.00 0.00 72 1021.7
20260903152330 87 17 0.0 0.0 0.00 0.00 0.00 72 1021.9
20260903152225 87 23 0.0 0.0 0.00 0.00 0.00 74 1022.0
20260903152124 87 23 0.0 0.0 0.00 0.00 0.00 73 1021.9
20260903152023 87 19 0.0 0.0 0.00 0.00 0.00 74 1021.9
20260903151924 87 24 0.0 0.0 0.00 0.00 0.00 73 1022.0
20260903151824 87 27 0.0 0.0 0.00 0.00 0.00 73 1021.9
20260903151724 87 28 0.0 0.0 0.00 0.00 0.00 72 1021.9
20260903151621 87 0 0.0 0.0 0.00 0.00 0.00 72 1022.0
20260903151521 87 344 0.0 0.0 0.00 0.00 0.00 74 1022.0
20260903151421 87 5 0.0 0.0 0.00 0.00 0.00 73 1022.0
20260903151317 87 24 0.0 0.0 0.00 0.00 0.00 73 1022.0
20260903151210 87 109 0.0 0.0 0.00 0.00 0.00 72 1022.0
20260903151107 87 84 0.0 0.0 0.00 0.00 0.00 74 1022.0
20260903151007 87 103 0.0 0.0 0.00 0.00 0.00 72 1021.9
20260903150909 87 103 0.0 0.0 0.00 0.00 0.00 72 1022.0
20260903150808 87 96 0.0 0.0 0.00 0.00 0.00 71 1021.9
20260903150701 87 96 0.0 0.0 0.00 0.00 0.00 69 1022.0
20260903150602 87 96 0.0 0.0 0.00 0.00 0.00 69 1022.0
20260903150501 87 111 0.0 2.6 0.00 0.00 0.00 71 1022.0
20260903150400 87 104 0.0 2.6 0.00 0.00 0.00 71 1022.0
20260903150302 87 215 0.9 2.6 0.00 0.00 0.00 71 1022.0
20260903150202 87 215 0.9 2.6 0.00 0.00 0.00 72 1021.9
20260903150101 86 112 0.9 4.3 0.00 0.00 0.00 72 1022.0
20260903145958 86 111 1.7 4.3 0.00 0.00 0.00 72 1021.9
20260903145858 86 105 1.7 4.3 0.00 0.00 0.00 71 1021.7
20260903145755 86 87 1.7 4.3 0.00 0.00 0.00 73 1021.9
20260903145649 86 62 1.7 4.3 0.00 0.00 0.00 74 1021.9
20260903145549 86 62 2.6 4.3 0.00 0.00 0.00 71 1021.9
20260903145449 86 62 2.6 5.2 0.00 0.00 0.00 70 1021.9
20260903145349 86 62 2.6 5.2 0.00 0.00 0.00 74 1021.7
20260903145245 86 62 2.6 5.2 0.00 0.00 0.00 73 1021.7
20260903145143 86 62 2.6 5.2 0.00 0.00 0.00 74 1021.7
20260903145043 86 43 1.7 5.2 0.00 0.00 0.00 73 1021.9
20260903144943 86 99 1.7 5.2 0.00 0.00 0.00 71 1021.9
20260903144841 86 98 1.7 5.2 0.00 0.00 0.00 72 1021.7
20260903144739 86 71 1.7 5.2 0.00 0.00 0.00 73 1021.7
20260903144633 85 67 0.9 5.2 0.00 0.00 0.00 72 1021.7
20260903144533 85 65 0.9 5.2 0.00 0.00 0.00 72 1021.9
20260903144435 85 38 0.9 3.5 0.00 0.00 0.00 72 1021.9
20260903144333 85 38 0.0 3.5 0.00 0.00 0.00 74 1021.7
20260903144234 85 84 0.0 2.6 0.00 0.00 0.00 72 1021.7
20260903144126 85 83 0.0 0.0 0.00 0.00 0.00 71 1021.7
20260903144024 85 83 0.0 0.0 0.00 0.00 0.00 72 1021.9
20260903143924 85 82 0.0 0.0 0.00 0.00 0.00 73 1021.7
20260903143824 85 83 0.0 0.0 0.00 0.00 0.00 72 1021.6
20260903143724 85 83 0.0 0.0 0.00 0.00 0.00 72 1021.7
20260903143625 86 83 0.0 0.0 0.00 0.00 0.00 73 1021.9
20260903143521 85 72 0.0 0.0 0.00 0.00 0.00 72 1021.9
20260903143423 85 101 0.0 0.0 0.00 0.00 0.00 73 1021.9
20260903143320 85 97 0.0 0.0 0.00 0.00 0.00 73 1021.7
20260903143217 85 97 0.0 0.0 0.00 0.00 0.00 71 1021.9
20260903143112 85 95 0.0 0.0 0.00 0.00 0.00 73 1021.7
20260903143011 85 138 0.0 0.0 0.00 0.00 0.00 73 1021.7
20260903142913 85 103 0.0 0.0 0.00 0.00 0.00 75 1021.9
20260903142811 85 103 0.0 0.0 0.00 0.00 0.00 73 1021.6
20260903142712 85 104 0.0 0.0 0.00 0.00 0.00 72 1021.7
20260903142602 85 106 0.0 0.0 0.00 0.00 0.00 72 1021.6
20260903142501 85 110 0.0 0.0 0.00 0.00 0.00 73 1021.7
20260903142402 85 86 0.0 0.0 0.00 0.00 0.00 72 1021.7
20260903142301 85 111 0.0 0.0 0.00 0.00 0.00 71 1021.7
20260903142201 85 111 0.0 0.0 0.00 0.00 0.00 75 1021.6
20260903142059 85 111 0.0 0.0 0.00 0.00 0.00 73 1021.6
20260903142000 85 114 0.0 0.0 0.00 0.00 0.00 72 1021.6
20260903141859 84 114 0.0 0.0 0.00 0.00 0.00 73 1021.6
20260903141758 84 114 0.0 0.0 0.00 0.00 0.00 72 1021.7
20260903141656 84 114 0.0 0.0 0.00 0.00 0.00 73 1021.6
20260903141553 84 114 0.0 0.0 0.00 0.00 0.00 72 1021.7